WD9GET Weather Reports


Display with metric or nautical units.
time (UTC)temp
F
wind
direction
speed
MPH
gust
MPH
rain 1hr
in
rain 24hr
in
rain mn
in
humidity
%
barometer
mb
20260508185242 69 32 4.0 9.0 0.00 0.00 0.00 97 1010.3
20260508185138 69 40 4.0 9.0 0.00 0.00 0.00 97 1010.3
20260508185038 69 51 4.0 9.0 0.00 0.00 0.00 97 1010.3
20260508184931 69 22 4.0 9.0 0.00 0.00 0.00 97 1010.3
20260508184825 69 39 4.0 9.0 0.00 0.00 0.00 97 1010.3
20260508184720 69 18 4.0 9.0 0.00 0.00 0.00 97 1010.3
20260508184620 69 23 4.0 9.0 0.00 0.00 0.00 97 1010.3
20260508184519 69 61 4.0 9.0 0.00 0.00 0.00 97 1010.3
20260508184419 69 21 4.0 8.0 0.00 0.00 0.00 97 1010.3
20260508184318 69 57 4.0 8.0 0.00 0.00 0.00 97 1010.4
20260508184302 69 41 4.0 8.0 0.00 0.00 0.00 97 1010.4
20260508184202 69 52 4.0 8.0 0.00 0.00 0.00 97 1010.4
20260508184101 69 29 4.0 8.0 0.00 0.00 0.00 97 1010.5
20260508184001 69 14 4.0 8.0 0.00 0.00 0.00 97 1010.5
20260508183856 69 10 3.0 8.0 0.00 0.00 0.00 97 1010.5
20260508183813 69 354 3.0 8.0 0.00 0.00 0.00 97 1010.5
20260508183756 69 356 3.0 8.0 0.00 0.00 0.00 97 1010.5
20260508183650 69 38 3.0 8.0 0.00 0.00 0.00 97 1010.5
20260508183544 69 28 3.0 8.0 0.00 0.00 0.00 97 1010.6
20260508183443 69 7 3.0 8.0 0.00 0.00 0.00 97 1010.6
20260508183343 69 26 3.0 8.0 0.00 0.00 0.00 97 1010.6
20260508183313 69 8 3.0 8.0 0.00 0.00 0.00 97 1010.6
20260508183242 69 38 3.0 8.0 0.00 0.00 0.00 97 1010.6
20260508183142 69 34 3.0 8.0 0.00 0.00 0.00 97 1010.6
20260508183032 69 309 2.0 8.0 0.00 0.00 0.00 97 1010.7
20260508182931 69 35 3.0 8.0 0.00 0.00 0.00 97 1010.7
20260508182826 69 47 3.0 8.0 0.00 0.00 0.00 97 1010.7
20260508182813 69 23 3.0 8.0 0.00 0.00 0.00 97 1010.7
20260508182719 69 353 3.0 7.0 0.00 0.00 0.00 97 1010.7
20260508182619 69 42 3.0 7.0 0.00 0.00 0.00 96 1010.7
20260508182535 69 48 3.0 7.0 0.00 0.00 0.00 96 1010.7
20260508182519 69 20 3.0 7.0 0.00 0.00 0.00 96 1010.7
20260508182418 69 337 3.0 7.0 0.00 0.00 0.00 96 1010.7
20260508182307 69 38 3.0 7.0 0.00 0.00 0.00 96 1010.7
20260508182208 69 21 3.0 7.0 0.00 0.00 0.00 96 1010.7
20260508182102 69 268 3.0 7.0 0.00 0.00 0.00 96 1010.7
20260508181956 69 10 3.0 7.0 0.00 0.00 0.00 96 1010.7
20260508181850 69 14 3.0 7.0 0.00 0.00 0.00 96 1010.7
20260508181812 69 357 3.0 7.0 0.00 0.00 0.00 96 1010.8
20260508181743 69 32 3.0 7.0 0.00 0.00 0.00 96 1010.8
20260508181644 69 15 2.0 7.0 0.00 0.00 0.00 96 1010.8
20260508181543 69 6 2.0 7.0 0.00 0.00 0.00 96 1010.8
20260508181442 69 33 2.0 7.0 0.00 0.00 0.00 96 1010.9
20260508181331 69 8 2.0 7.0 0.00 0.00 0.00 96 1010.9
20260508181307 69 49 2.0 7.0 0.00 0.00 0.00 96 1010.9
20260508181226 69 36 2.0 7.0 0.00 0.00 0.00 96 1010.9
20260508181121 69 55 2.0 7.0 0.00 0.00 0.00 96 1011.0
20260508181020 69 309 2.0 7.0 0.00 0.00 0.00 96 1010.9
20260508181013 69 7 2.0 6.0 0.00 0.00 0.00 96 1011.0
20260508180914 69 7 2.0 7.0 0.00 0.00 0.00 96 1010.9
20260508180901 69 21 2.0 6.0 0.00 0.00 0.00 96 1011.0
20260508180702 69 327 2.0 6.0 0.00 0.00 0.00 96 1011.0
20260508180602 69 359 2.0 6.0 0.00 0.00 0.00 96 1011.0
20260508180501 69 48 2.0 6.0 0.00 0.00 0.00 96 1011.0
20260508180402 69 36 2.0 6.0 0.00 0.00 0.00 96 1010.9
20260508180250 69 23 2.0 6.0 0.00 0.00 0.00 96 1010.9
20260508180241 69 58 2.0 6.0 0.00 0.00 0.00 96 1010.8
20260508180150 69 14 3.0 6.0 0.00 0.00 0.00 96 1010.8
20260508180043 69 8 2.0 4.0 0.00 0.00 0.00 96 1010.8
20260508175942 69 15 2.0 4.0 0.00 0.00 0.00 96 1010.8
20260508175842 69 356 2.0 4.0 0.00 0.00 0.00 96 1010.8
20260508175743 69 25 2.0 4.0 0.00 0.00 0.00 96 1010.8
20260508175642 69 353 2.0 4.0 0.00 0.00 0.00 96 1010.8
20260508175543 69 44 2.0 4.0 0.00 0.00 0.00 96 1010.8
20260508175457 69 44 3.0 7.0 0.00 0.00 0.00 96 1011.0
20260508175442 69 331 2.0 5.0 0.00 0.00 0.00 96 1010.9
20260508175339 69 38 2.0 5.0 0.00 0.00 0.00 96 1010.9
20260508175334 69 44 3.0 7.0 0.00 0.00 0.00 96 1011.0
20260508175129 69 351 3.0 7.0 0.00 0.00 0.00 96 1011.0
20260508175020 69 259 3.0 7.0 0.00 0.00 0.00 96 1011.0
20260508174920 69 14 3.0 7.0 0.00 0.00 0.00 96 1011.0
20260508174814 69 354 3.0 7.0 0.00 0.00 0.00 96 1011.0
20260508174714 69 13 3.0 7.0 0.00 0.00 0.00 96 1011.0
20260508174701 69 333 3.0 7.0 0.00 0.00 0.00 96 1011.0
20260508174615 69 26 3.0 7.0 0.00 0.00 0.00 96 1011.0
20260508174514 69 28 3.0 7.0 0.00 0.00 0.00 96 1011.0
20260508174408 69 41 3.0 7.0 0.00 0.00 0.00 96 1011.0
20260508174308 69 24 3.0 7.0 0.00 0.00 0.00 96 1011.1
20260508174203 69 8 3.0 7.0 0.00 0.00 0.00 96 1011.1
20260508174051 69 41 3.0 7.0 0.00 0.00 0.00 97 1011.1
20260508173951 69 2 3.0 7.0 0.00 0.00 0.00 97 1011.1
20260508173850 69 5 3.0 7.0 0.00 0.00 0.00 97 1011.1
20260508173750 69 24 3.0 7.0 0.00 0.00 0.00 97 1011.1
20260508173650 69 32 3.0 7.0 0.00 0.00 0.00 97 1011.1
20260508173550 69 345 3.0 7.0 0.00 0.00 0.00 97 1011.1
20260508173445 69 39 3.0 7.0 0.00 0.00 0.00 97 1011.1
20260508173342 69 13 3.0 7.0 0.00 0.00 0.00 97 1011.1
20260508173244 69 24 3.0 7.0 0.00 0.00 0.00 97 1011.1
20260508173149 69 35 3.0 7.0 0.00 0.00 0.00 97 1011.1
20260508173138 69 33 3.0 7.0 0.00 0.00 0.00 97 1011.1
20260508173038 69 353 3.0 7.0 0.00 0.00 0.00 97 1011.2
20260508172932 69 32 4.0 7.0 0.00 0.00 0.00 97 1011.2
20260508172912 69 32 3.0 7.0 0.00 0.00 0.00 97 1011.3
20260508172832 69 57 4.0 7.0 0.00 0.00 0.00 97 1011.2
20260508172755 69 335 4.0 7.0 0.00 0.00 0.00 97 1011.3
20260508172632 69 31 3.0 7.0 0.00 0.00 0.00 97 1011.3
20260508172527 69 18 3.0 7.0 0.00 0.00 0.00 97 1011.3
20260508172427 69 23 4.0 7.0 0.00 0.00 0.00 97 1011.3
20260508172327 69 33 3.0 7.0 0.00 0.00 0.00 97 1011.3
20260508172226 69 28 3.0 7.0 0.00 0.00 0.00 98 1011.3
20260508172142 69 30 3.0 6.0 0.00 0.00 0.00 98 1011.3
20260508172127 69 39 3.0 6.0 0.00 0.00 0.00 98 1011.3
20260508172026 69 45 3.0 6.0 0.00 0.00 0.00 98 1011.3
20260508171926 69 19 3.0 6.0 0.00 0.00 0.00 98 1011.3
20260508171827 69 45 3.0 6.0 0.00 0.00 0.00 98 1011.3
20260508171727 69 41 3.0 6.0 0.00 0.00 0.00 98 1011.3
20260508171642 69 359 3.0 6.0 0.00 0.00 0.00 98 1011.2
20260508171620 69 37 3.0 6.0 0.00 0.00 0.00 98 1011.2
20260508171520 69 52 3.0 6.0 0.00 0.00 0.00 98 1011.2
20260508171420 69 28 3.0 6.0 0.00 0.00 0.00 98 1011.2
20260508171309 69 349 3.0 6.0 0.00 0.00 0.00 98 1011.2
20260508171202 69 60 4.0 6.0 0.00 0.00 0.00 98 1011.2
20260508171142 69 43 4.0 6.0 0.00 0.00 0.00 98 1011.2
20260508171102 69 54 3.0 6.0 0.00 0.00 0.00 98 1011.2
20260508170957 69 2 4.0 6.0 0.00 0.00 0.00 98 1011.1
20260508170857 69 329 3.0 6.0 0.00 0.00 0.00 98 1011.1
20260508170757 69 13 3.0 6.0 0.00 0.00 0.00 98 1011.1
20260508170657 69 71 2.0 6.0 0.00 0.00 0.00 99 1011.1
20260508170642 69 47 2.0 6.0 0.00 0.00 0.00 99 1011.1
20260508170557 69 18 2.0 6.0 0.00 0.00 0.00 99 1011.1
20260508170451 69 37 2.0 6.0 0.00 0.00 0.00 99 1011.1
20260508170345 68 43 2.0 5.0 0.00 0.00 0.00 99 1011.0
20260508170230 68 59 2.0 6.0 0.00 0.00 0.00 99 1011.1
20260508170130 68 48 3.0 6.0 0.00 0.00 0.00 99 1011.1
20260508170030 68 38 3.0 7.0 0.00 0.00 0.00 99 1011.2
20260508165921 68 47 3.0 7.0 0.00 0.00 0.00 99 1011.2
20260508165855 68 42 3.0 7.0 0.00 0.00 0.00 99 1011.3
20260508165821 68 69 3.0 7.0 0.00 0.00 0.00 99 1011.2
20260508165743 68 57 3.0 7.0 0.00 0.00 0.00 99 1011.3
20260508165609 68 45 3.0 7.0 0.00 0.00 0.00 99 1011.3
20260508165503 68 32 4.0 7.0 0.00 0.00 0.00 99 1011.3
20260508165403 68 29 3.0 7.0 0.00 0.00 0.00 99 1011.3
20260508165306 68 67 3.0 7.0 0.00 0.00 0.00 99 1011.3
20260508165156 68 45 3.0 7.0 0.00 0.00 0.00 99 1011.6
20260508165132 68 54 3.0 7.0 0.00 0.00 0.00 99 1011.6
20260508165057 68 26 3.0 6.0 0.00 0.00 0.00 99 1011.6
20260508164944 68 58 3.0 5.0 0.00 0.00 0.00 99 1011.6
20260508164844 68 350 2.0 5.0 0.00 0.00 0.00 99 1011.7
20260508164744 68 33 2.0 5.0 0.00 0.00 0.00 99 1011.8
20260508164643 68 41 2.0 5.0 0.00 0.00 0.00 99 1011.8
20260508164629 68 41 2.0 6.0 0.00 0.00 0.00 99 1011.8
20260508164544 68 58 3.0 6.0 0.00 0.00 0.00 99 1011.9
20260508164444 68 15 3.0 6.0 0.00 0.00 0.00 99 1011.9
20260508164343 68 28 3.0 6.0 0.00 0.00 0.00 99 1012.0
20260508164230 68 54 3.0 7.0 0.00 0.00 0.00 99 1012.0
20260508164126 68 51 3.0 7.0 0.00 0.00 0.00 99 1012.0
20260508164120 68 29 3.0 7.0 0.00 0.00 0.00 99 1012.0
20260508164020 68 42 3.0 7.0 0.00 0.00 0.00 99 1012.1
20260508163920 68 0 3.0 7.0 0.00 0.00 0.00 99 1012.1
20260508163815 68 52 3.0 7.0 0.00 0.00 0.00 99 1012.1
20260508163715 68 21 4.0 7.0 0.00 0.00 0.00 99 1012.1
20260508163615 68 21 4.0 7.0 0.00 0.00 0.00 99 1012.1
20260508163515 68 30 3.0 7.0 0.00 0.00 0.00 99 1012.1
20260508163415 68 332 3.0 7.0 0.00 0.00 0.00 99 1012.1
20260508163315 68 54 3.0 7.0 0.00 0.00 0.00 99 1012.1
20260508163215 68 313 3.0 7.0 0.00 0.00 0.00 99 1012.1
20260508163115 68 32 3.0 7.0 0.00 0.00 0.00 99 1012.1
20260508163015 68 15 3.0 7.0 0.00 0.00 0.00 99 1012.1
20260508162915 68 19 3.0 5.0 0.00 0.00 0.00 99 1012.1
20260508162815 68 9 3.0 5.0 0.00 0.00 0.00 99 1012.0
20260508162715 68 54 3.0 5.0 0.00 0.00 0.00 99 1012.0
20260508162615 68 26 3.0 5.0 0.00 0.00 0.00 99 1012.0
20260508162515 68 29 3.0 5.0 0.00 0.00 0.00 99 1012.0
20260508162415 68 22 3.0 6.0 0.00 0.00 0.00 99 1012.0
20260508162315 68 343 3.0 6.0 0.00 0.00 0.00 99 1012.0
20260508162209 68 38 3.0 6.0 0.00 0.00 0.00 99 1012.0
20260508162109 68 17 3.0 6.0 0.00 0.00 0.00 99 1012.0
20260508162044 68 1 4.0 6.0 0.00 0.00 0.00 99 1012.0
20260508162009 68 35 4.0 6.0 0.00 0.00 0.00 99 1012.1
20260508161904 68 33 4.0 6.0 0.00 0.00 0.00 99 1012.1
20260508161803 68 27 4.0 6.0 0.00 0.00 0.00 99 1012.1
20260508161703 68 18 3.0 6.0 0.00 0.00 0.00 99 1012.1
20260508161603 68 5 3.0 6.0 0.00 0.00 0.00 99 1012.2
20260508161543 68 9 3.0 6.0 0.00 0.00 0.00 99 1012.2
20260508161503 68 34 3.0 6.0 0.00 0.00 0.00 99 1012.2
20260508161404 68 48 3.0 5.0 0.00 0.00 0.00 99 1012.3
20260508161259 68 15 2.0 5.0 0.00 0.00 0.00 99 1012.3
20260508161201 68 36 2.0 4.0 0.00 0.00 0.00 99 1012.4
20260508161101 68 44 2.0 4.0 0.00 0.00 0.00 99 1012.4
20260508161044 68 47 2.0 4.0 0.00 0.00 0.00 99 1012.4
20260508161001 68 32 2.0 5.0 0.00 0.00 0.00 99 1012.4
20260508160845 68 33 2.0 5.0 0.00 0.00 0.00 99 1012.4
20260508160745 68 61 2.0 5.0 0.00 0.00 0.00 99 1012.4
20260508160645 68 1 2.0 5.0 0.00 0.00 0.00 99 1012.4
20260508160545 68 55 2.0 5.0 0.00 0.00 0.00 99 1012.4
20260508160445 68 56 2.0 5.0 0.00 0.00 0.00 99 1012.5
20260508160345 68 334 2.0 5.0 0.00 0.00 0.00 99 1012.4
20260508160246 68 23 3.0 5.0 0.00 0.00 0.00 99 1012.5
20260508160145 68 69 3.0 5.0 0.00 0.00 0.00 99 1012.5
20260508160045 68 48 3.0 5.0 0.00 0.00 0.00 99 1012.5
20260508155946 68 10 2.0 5.0 0.00 0.00 0.00 99 1012.5
20260508155844 67 24 2.0 4.0 0.00 0.00 0.00 99 1012.6
20260508155744 67 42 2.0 4.0 0.00 0.00 0.00 99 1012.6
20260508155645 67 32 2.0 4.0 0.00 0.00 0.00 99 1012.6
20260508155548 67 20 2.0 4.0 0.00 0.00 0.00 99 1012.6
20260508155544 67 27 2.0 4.0 0.00 0.00 0.00 99 1012.7
20260508155432 67 335 2.0 4.0 0.00 0.00 0.00 99 1012.7
20260508155331 67 52 2.0 4.0 0.00 0.00 0.00 99 1012.7
20260508155216 67 31 2.0 4.0 0.00 0.00 0.00 99 1012.7
20260508155046 67 332 2.0 4.0 0.00 0.00 0.00 99 1012.7
20260508154916 67 344 2.0 4.0 0.00 0.00 0.00 99 1012.7
20260508154815 67 353 2.0 3.0 0.00 0.00 0.00 99 1012.7
20260508154805 67 8 2.0 3.0 0.00 0.00 0.00 99 1012.7
20260508154716 67 24 2.0 3.0 0.00 0.00 0.00 99 1012.7
20260508154649 67 8 2.0 3.0 0.00 0.00 0.00 99 1012.7
20260508154415 67 11 2.0 3.0 0.00 0.00 0.00 99 1012.7
20260508154245 67 354 1.0 3.0 0.00 0.00 0.00 99 1012.7
20260508154144 67 19 1.0 3.0 0.00 0.00 0.00 99 1012.6
20260508154044 67 31 2.0 3.0 0.00 0.00 0.00 99 1012.6
20260508153944 67 9 2.0 4.0 0.00 0.00 0.00 99 1012.6
20260508153753 67 291 2.0 4.0 0.00 0.00 0.00 99 1012.4
20260508153746 67 359 2.0 4.0 0.00 0.00 0.00 99 1012.6
20260508153645 67 27 2.0 4.0 0.00 0.00 0.00 99 1012.4
20260508153635 67 291 2.0 4.0 0.00 0.00 0.00 99 1012.4
20260508153427 67 75 2.0 4.0 0.00 0.00 0.00 99 1012.4
20260508153321 67 353 2.0 4.0 0.00 0.00 0.00 99 1012.4
20260508153230 67 26 2.0 4.0 0.00 0.00 0.00 99 1012.5
20260508153210 67 3 2.0 4.0 0.00 0.00 0.00 99 1012.4
20260508153119 67 50 2.0 4.0 0.00 0.00 0.00 99 1012.5
20260508152958 67 41 2.0 4.0 0.00 0.00 0.00 99 1012.5
20260508152830 67 315 2.0 4.0 0.00 0.00 0.00 99 1012.5
20260508152717 67 16 2.0 4.0 0.00 0.00 0.00 99 1012.5
20260508152617 67 18 2.0 4.0 0.00 0.00 0.00 99 1012.5
20260508152514 67 44 2.0 4.0 0.00 0.00 0.00 99 1012.5
20260508152500 67 44 2.0 4.0 0.00 0.00 0.00 99 1012.5
20260508152345 67 42 2.0 4.0 0.00 0.00 0.00 99 1012.5
20260508152231 67 359 2.0 4.0 0.00 0.00 0.00 99 1012.5
20260508152115 67 31 2.0 5.0 0.00 0.00 0.00 99 1012.5
20260508152015 67 32 2.0 5.0 0.00 0.00 0.00 99 1012.5
20260508152000 67 302 2.0 5.0 0.00 0.00 0.00 99 1012.5
20260508151915 67 40 2.0 5.0 0.00 0.00 0.00 99 1012.5
20260508151715 67 83 2.0 5.0 0.00 0.00 0.00 99 1012.5
20260508151609 67 325 2.0 5.0 0.00 0.00 0.00 99 1012.4
20260508151509 67 354 2.0 5.0 0.00 0.00 0.00 99 1012.4
20260508151451 67 347 2.0 5.0 0.00 0.00 0.00 99 1012.4
20260508151404 67 26 2.0 5.0 0.00 0.00 0.00 99 1012.2
20260508151258 67 40 2.0 5.0 0.00 0.00 0.00 99 1012.2
20260508151152 67 355 2.0 5.0 0.00 0.00 0.00 99 1012.2
20260508151045 67 48 2.0 3.0 0.00 0.00 0.00 99 1012.1
20260508150945 67 48 2.0 3.0 0.00 0.00 0.00 99 1012.1
20260508150931 67 51 2.0 3.0 0.00 0.00 0.00 99 1012.1
20260508150816 68 348 1.0 2.0 0.00 0.00 0.00 99 1012.2
20260508150716 68 17 2.0 4.0 0.00 0.00 0.00 99 1012.2
20260508150602 68 297 2.0 4.0 0.00 0.00 0.00 99 1012.2
20260508150501 68 22 2.0 4.0 0.00 0.00 0.00 99 1012.2
20260508150445 68 38 2.0 4.0 0.00 0.00 0.00 99 1012.2
20260508150401 68 291 2.0 4.0 0.00 0.00 0.00 99 1012.2
20260508150301 68 327 2.0 4.0 0.00 0.00 0.00 99 1012.1
20260508150201 68 302 2.0 4.0 0.00 0.00 0.00 99 1012.1
20260508150046 68 304 2.0 4.0 0.00 0.00 0.00 99 1012.0
20260508145948 68 322 2.0 4.0 0.00 0.00 0.00 99 1012.0
20260508145943 68 85 2.0 4.0 0.00 0.00 0.00 99 1012.0
20260508145846 68 346 2.0 4.0 0.00 0.00 0.00 99 1012.0
20260508145744 68 21 2.0 4.0 0.00 0.00 0.00 99 1012.0
20260508145702 68 342 2.0 4.0 0.00 0.00 0.00 99 1011.9
20260508145644 68 7 2.0 4.0 0.00 0.00 0.00 99 1012.0
20260508145549 68 34 2.0 4.0 0.00 0.00 0.00 99 1012.0
20260508145431 68 342 2.0 4.0 0.00 0.00 0.00 99 1011.9
20260508145331 68 22 2.0 4.0 0.00 0.00 0.00 99 1011.9
20260508145231 68 14 2.0 5.0 0.00 0.00 0.00 99 1011.9
20260508145200 68 29 2.0 5.0 0.00 0.00 0.00 99 1011.9
20260508145131 68 35 2.0 5.0 0.00 0.00 0.00 99 1011.9
20260508145048 68 4 2.0 5.0 0.00 0.00 0.00 99 1011.9
20260508144931 68 29 2.0 5.0 0.00 0.00 0.00 99 1011.9
20260508144831 68 337 2.0 5.0 0.00 0.00 0.00 99 1011.8
20260508144716 68 22 2.0 5.0 0.00 0.00 0.00 99 1011.8
20260508144559 68 35 2.0 5.0 0.00 0.00 0.00 99 1011.7
20260508144451 68 329 2.0 5.0 0.00 0.00 0.00 99 1011.7
20260508144433 68 316 3.0 5.0 0.00 0.00 0.00 99 1011.7
20260508144346 68 42 3.0 5.0 0.00 0.00 0.00 99 1011.7
20260508144231 68 47 3.0 5.0 0.00 0.00 0.00 99 1011.8
20260508144116 68 6 3.0 4.0 0.00 0.00 0.00 99 1011.8
20260508143931 68 19 3.0 4.0 0.00 0.00 0.00 99 1011.8
20260508143831 68 15 3.0 4.0 0.00 0.00 0.00 99 1011.8
20260508143731 68 29 3.0 5.0 0.00 0.00 0.00 99 1011.7
20260508143631 68 35 3.0 5.0 0.00 0.00 0.00 99 1011.7
20260508143531 68 33 3.0 5.0 0.00 0.00 0.00 99 1011.6
20260508143431 68 38 3.0 5.0 0.00 0.00 0.00 99 1011.6
20260508143301 68 42 3.0 5.0 0.00 0.00 0.00 99 1011.9
20260508143201 68 71 2.0 5.0 0.00 0.00 0.00 99 1011.9
20260508143101 68 11 2.0 5.0 0.00 0.00 0.00 99 1011.9
20260508143001 68 28 2.0 5.0 0.00 0.00 0.00 99 1012.0
20260508142915 68 32 2.0 5.0 0.00 0.00 0.00 99 1012.1
20260508142846 68 19 2.0 5.0 0.00 0.00 0.00 99 1012.1
20260508142747 68 41 2.0 4.0 0.00 0.00 0.00 99 1012.1
20260508142637 68 20 2.0 3.0 0.00 0.00 0.00 99 1012.2
20260508142616 68 11 2.0 3.0 0.00 0.00 0.00 99 1012.1
20260508142527 68 35 2.0 3.0 0.00 0.00 0.00 99 1012.1
20260508142521 68 20 2.0 3.0 0.00 0.00 0.00 99 1012.2
20260508142317 68 21 2.0 3.0 0.00 0.00 0.00 99 1012.2
20260508142217 68 36 2.0 3.0 0.00 0.00 0.00 99 1012.2
20260508142117 68 29 1.0 3.0 0.00 0.00 0.00 99 1012.3
20260508142017 68 354 1.0 2.0 0.00 0.00 0.00 99 1012.3
20260508141918 68 357 1.0 2.0 0.00 0.00 0.00 99 1012.4
20260508141745 68 24 1.0 2.0 0.00 0.00 0.00 99 1012.4
20260508141632 68 352 1.0 2.0 0.00 0.00 0.00 99 1012.5
20260508141530 68 13 1.0 2.0 0.00 0.00 0.00 99 1012.5
20260508141431 68 319 1.0 2.0 0.00 0.00 0.00 99 1012.5
20260508141317 68 329 1.0 2.0 0.00 0.00 0.00 99 1012.6
20260508141202 68 307 1.0 2.0 0.00 0.00 0.00 99 1012.6
20260508141102 68 0 1.0 2.0 0.00 0.00 0.00 99 1012.6
20260508141020 68 34 1.0 2.0 0.00 0.00 0.00 99 1012.5
20260508141001 68 318 1.0 2.0 0.00 0.00 0.00 99 1012.6
20260508140912 68 313 1.0 2.0 0.00 0.00 0.00 99 1012.5
20260508140906 68 34 1.0 2.0 0.00 0.00 0.00 99 1012.5
20260508140702 68 45 1.0 2.0 0.00 0.00 0.00 99 1012.5
20260508140546 68 48 1.0 2.0 0.00 0.00 0.00 99 1012.5
20260508140528 68 0 1.0 2.0 0.00 0.00 0.00 99 1012.5
20260508140432 68 28 1.0 2.0 0.00 0.00 0.00 99 1012.5
20260508140406 68 0 1.0 2.0 0.00 0.00 0.00 99 1012.5
20260508140216 68 31 1.0 2.0 0.00 0.00 0.00 99 1012.5
20260508140002 68 61 1.0 2.0 0.00 0.00 0.00 99 1012.5
20260508135846 68 337 1.0 2.0 0.00 0.00 0.00 99 1012.5
20260508135747 68 335 0.0 2.0 0.00 0.00 0.00 99 1012.5
20260508135730 68 23 1.0 2.0 0.00 0.00 0.00 99 1012.5
20260508135647 68 350 1.0 2.0 0.00 0.00 0.00 99 1012.5
20260508135547 68 251 1.0 2.0 0.00 0.00 0.00 99 1012.5
20260508135445 68 235 1.0 3.0 0.00 0.00 0.00 99 1012.4
20260508135346 68 310 1.0 3.0 0.00 0.00 0.00 99 1012.4
20260508135230 68 341 1.0 3.0 0.00 0.00 0.00 99 1012.4
20260508135146 68 122 1.0 3.0 0.00 0.00 0.00 99 1012.3
20260508135045 68 285 1.0 3.0 0.00 0.00 0.00 99 1012.3
20260508134946 68 0 1.0 3.0 0.00 0.00 0.00 99 1012.2
20260508134832 68 94 1.0 3.0 0.00 0.00 0.00 99 1012.2
20260508134717 68 37 1.0 3.0 0.00 0.00 0.00 99 1012.2
20260508134617 68 7 1.0 3.0 0.00 0.00 0.00 99 1012.2
20260508134517 68 49 1.0 5.0 0.00 0.00 0.00 99 1012.2
20260508134417 68 5 2.0 5.0 0.00 0.00 0.00 99 1012.2
20260508134316 68 306 2.0 5.0 0.00 0.00 0.00 99 1012.2
20260508134202 68 330 2.0 5.0 0.00 0.00 0.00 99 1012.2
20260508134102 68 28 2.0 5.0 0.00 0.00 0.00 99 1012.1
20260508134002 68 357 2.0 5.0 0.00 0.00 0.00 99 1011.9
20260508133902 68 347 2.0 5.0 0.00 0.00 0.00 99 1011.9
20260508133802 68 23 2.0 5.0 0.00 0.00 0.00 99 1011.8
20260508133703 68 22 2.0 5.0 0.00 0.00 0.00 99 1011.8
20260508133645 68 42 2.0 5.0 0.00 0.00 0.00 99 1011.8
20260508133602 68 358 2.0 5.0 0.00 0.00 0.00 98 1011.9
20260508133502 68 110 2.0 5.0 0.00 0.00 0.00 98 1011.9
20260508133402 68 78 2.0 3.0 0.00 0.00 0.00 98 1011.9
20260508133307 68 98 2.0 3.0 0.00 0.00 0.00 99 1012.1
20260508133202 68 126 2.0 3.0 0.00 0.00 0.00 99 1012.1
20260508133146 68 121 2.0 3.0 0.00 0.00 0.00 99 1012.1
20260508133102 68 96 2.0 3.0 0.00 0.00 0.00 98 1012.2
20260508133002 68 60 2.0 3.0 0.00 0.00 0.00 98 1012.4
20260508132909 68 10 2.0 3.0 0.00 0.00 0.00 98 1012.4
20260508132902 68 17 2.0 3.0 0.00 0.00 0.00 98 1012.4
20260508132756 68 41 2.0 3.0 0.00 0.00 0.00 98 1012.4
20260508132646 68 30 2.0 3.0 0.00 0.00 0.00 98 1012.4
20260508132532 68 59 2.0 4.0 0.00 0.00 0.00 98 1012.5
20260508132433 68 330 2.0 4.0 0.00 0.00 0.00 98 1012.5
20260508132332 68 45 2.0 4.0 0.00 0.00 0.00 98 1012.5
20260508132232 68 32 2.0 4.0 0.00 0.00 0.00 98 1012.5
20260508132146 68 32 1.0 4.0 0.00 0.00 0.00 98 1012.5
20260508132132 68 44 1.0 4.0 0.00 0.00 0.00 98 1012.5
20260508132033 68 51 1.0 4.0 0.00 0.00 0.00 98 1012.5
20260508131931 68 5 1.0 4.0 0.00 0.00 0.00 98 1012.5
20260508131832 68 352 2.0 4.0 0.00 0.00 0.00 98 1012.5
20260508131718 68 353 2.0 4.0 0.00 0.00 0.00 98 1012.5
20260508131646 68 40 2.0 4.0 0.00 0.00 0.00 98 1012.5
20260508131629 68 259 2.0 5.0 0.00 0.00 0.00 98 1012.6
20260508131602 68 47 2.0 5.0 0.00 0.00 0.00 98 1012.6
20260508131514 68 63 2.0 5.0 0.00 0.00 0.00 98 1012.6
20260508131402 68 62 2.0 5.0 0.00 0.00 0.00 98 1012.6
20260508131302 68 20 2.0 5.0 0.00 0.00 0.00 98 1012.6
20260508131251 68 259 2.0 5.0 0.00 0.00 0.00 98 1012.6
20260508131059 68 5 2.0 5.0 0.00 0.00 0.00 98 1012.6
20260508130953 68 328 2.0 5.0 0.00 0.00 0.00 98 1012.6
20260508130847 68 50 2.0 5.0 0.00 0.00 0.00 98 1012.6
20260508130747 68 44 2.0 5.0 0.00 0.00 0.00 98 1012.6
20260508130648 68 342 2.0 5.0 0.00 0.00 0.00 98 1012.6
20260508130546 68 353 2.0 4.0 0.00 0.00 0.00 98 1012.6
20260508130432 68 357 2.0 4.0 0.00 0.00 0.00 98 1012.6
20260508130334 68 7 2.0 4.0 0.00 0.00 0.00 98 1012.6
20260508130232 68 350 2.0 5.0 0.00 0.00 0.00 98 1012.6
20260508130146 68 20 2.0 5.0 0.00 0.00 0.00 98 1012.6
20260508130132 68 358 2.0 5.0 0.00 0.00 0.00 98 1012.6
20260508130032 68 24 2.0 5.0 0.00 0.00 0.00 98 1012.6
20260508125918 68 44 1.0 5.0 0.00 0.00 0.00 98 1012.5
20260508125902 68 5 2.0 5.0 0.00 0.00 0.00 98 1012.6
20260508125802 68 304 2.0 5.0 0.00 0.00 0.00 98 1012.5
20260508125751 68 52 1.0 5.0 0.00 0.00 0.00 98 1012.5
20260508125629 68 28 2.0 5.0 0.00 0.00 0.00 97 1012.2
20260508125603 68 353 1.0 5.0 0.00 0.00 0.00 98 1012.5
20260508125517 68 9 2.0 5.0 0.00 0.00 0.00 98 1012.4
20260508125402 68 352 2.0 5.0 0.00 0.00 0.00 98 1012.3
20260508125306 68 23 2.0 5.0 0.00 0.00 0.00 98 1012.3
20260508125250 68 356 2.0 5.0 0.00 0.00 0.00 97 1012.2
20260508125047 68 32 2.0 5.0 0.00 0.00 0.00 97 1012.2
20260508124947 68 55 2.0 6.0 0.00 0.00 0.00 97 1012.3
20260508124846 68 0 2.0 6.0 0.00 0.00 0.00 97 1012.3
20260508124746 69 58 2.0 6.0 0.00 0.00 0.00 97 1012.3
20260508124647 69 5 2.0 6.0 0.00 0.00 0.00 97 1012.3
20260508124546 69 46 2.0 6.0 0.00 0.00 0.00 97 1012.3
20260508124442 69 24 2.0 6.0 0.00 0.00 0.00 97 1012.3
20260508124342 69 27 2.0 6.0 0.00 0.00 0.00 97 1012.3
20260508124236 69 21 2.0 6.0 0.00 0.00 0.00 97 1012.3
20260508124145 69 308 2.0 6.0 0.00 0.00 0.00 97 1012.2
20260508124135 69 331 2.0 6.0 0.00 0.00 0.00 97 1012.2
20260508124033 69 27 2.0 6.0 0.00 0.00 0.00 97 1012.2
20260508123917 69 346 2.0 4.0 0.00 0.00 0.00 97 1012.2
20260508123802 69 9 2.0 4.0 0.00 0.00 0.00 97 1012.2
20260508123651 69 22 2.0 3.0 0.00 0.00 0.00 97 1012.2
20260508123645 69 40 2.0 3.0 0.00 0.00 0.00 97 1012.3
20260508123548 69 40 2.0 3.0 0.00 0.00 0.00 97 1012.3
20260508123446 69 153 2.0 3.0 0.00 0.00 0.00 96 1012.3
20260508123412 69 325 1.0 4.0 0.00 0.00 0.00 96 1012.3
20260508123346 69 349 2.0 4.0 0.00 0.00 0.00 96 1012.3
20260508123251 69 13 2.0 4.0 0.00 0.00 0.00 96 1012.3
20260508123132 69 325 1.0 4.0 0.00 0.00 0.00 96 1012.3
20260508123032 69 296 2.0 4.0 0.00 0.00 0.00 96 1012.3
20260508122931 69 317 2.0 4.0 0.00 0.00 0.00 96 1012.3
20260508122831 69 36 2.0 4.0 0.00 0.00 0.00 96 1012.2
20260508122732 69 30 2.0 4.0 0.00 0.00 0.00 96 1012.2
20260508122633 69 17 2.0 6.0 0.00 0.00 0.00 96 1012.2
20260508122533 69 338 2.0 6.0 0.00 0.00 0.00 96 1012.3
20260508122418 69 26 2.0 6.0 0.00 0.00 0.00 96 1012.3
20260508122306 69 10 2.0 6.0 0.00 0.00 0.00 96 1012.3
20260508122200 69 319 2.0 6.0 0.00 0.00 0.00 96 1012.3
20260508122134 69 353 2.0 6.0 0.00 0.00 0.00 96 1012.3
20260508122054 69 35 2.0 6.0 0.00 0.00 0.00 96 1012.3
20260508121954 69 9 2.0 6.0 0.00 0.00 0.00 96 1012.3
20260508121848 69 354 2.0 6.0 0.00 0.00 0.00 96 1012.3
20260508121748 69 32 2.0 6.0 0.00 0.00 0.00 96 1012.3
20260508121631 69 27 2.0 5.0 0.00 0.00 0.00 96 1012.3
20260508121546 69 42 2.0 4.0 0.00 0.00 0.00 96 1012.2
20260508121446 69 10 2.0 4.0 0.00 0.00 0.00 96 1012.2
20260508121347 69 299 2.0 4.0 0.00 0.00 0.00 96 1012.2
20260508121247 69 39 2.0 4.0 0.00 0.00 0.00 96 1012.1
20260508121132 69 37 2.0 3.0 0.00 0.00 0.00 96 1012.1
20260508121046 69 38 2.0 4.0 0.00 0.00 0.00 96 1012.0
20260508120946 69 10 2.0 4.0 0.00 0.00 0.00 96 1012.0
20260508120847 69 18 2.0 4.0 0.00 0.00 0.00 96 1012.0
20260508120747 69 22 2.0 4.0 0.00 0.00 0.00 96 1011.8
20260508120633 69 24 2.0 5.0 0.00 0.00 0.00 96 1011.8
20260508120533 69 3 2.0 5.0 0.00 0.00 0.00 96 1011.8
20260508120434 69 25 3.0 5.0 0.00 0.00 0.00 97 1011.8
20260508120303 69 4 3.0 5.0 0.00 0.00 0.00 96 1011.8
20260508120203 69 56 3.0 5.0 0.00 0.00 0.00 97 1011.7
20260508120132 69 37 3.0 5.0 0.00 0.00 0.00 97 1011.7
20260508120048 69 359 3.0 5.0 0.00 0.00 0.00 97 1011.7
20260508115948 69 22 3.0 5.0 0.00 0.00 0.00 97 1011.7
20260508115848 69 31 3.0 5.0 0.00 0.00 0.00 97 1011.7
20260508115703 70 30 3.0 5.0 0.00 0.00 0.00 96 1011.6
20260508115632 70 352 3.0 5.0 0.00 0.00 0.00 96 1011.6
20260508115548 70 359 3.0 5.0 0.00 0.00 0.00 96 1011.6
20260508115448 70 9 3.0 4.0 0.00 0.00 0.00 97 1011.5
20260508115352 70 26 3.0 4.0 0.00 0.00 0.00 96 1011.6
20260508115348 70 36 3.0 4.0 0.00 0.00 0.00 97 1011.6
20260508115248 70 41 3.0 4.0 0.00 0.00 0.00 96 1011.6
20260508115237 70 30 3.0 4.0 0.00 0.00 0.00 96 1011.6
20260508115048 70 42 3.0 4.0 0.00 0.00 0.00 96 1011.6
20260508114947 70 50 3.0 4.0 0.00 0.00 0.00 96 1011.6
20260508114847 70 23 3.0 4.0 0.00 0.00 0.00 96 1011.5
20260508114748 70 29 3.0 5.0 0.00 0.00 0.00 96 1011.5
20260508114633 70 32 3.0 5.0 0.00 0.00 0.00 96 1011.5
20260508114547 70 21 3.0 5.0 0.00 0.00 0.00 96 1011.5
20260508114447 70 44 3.0 5.0 0.00 0.00 0.00 96 1011.5
20260508114347 70 23 3.0 5.0 0.00 0.00 0.00 96 1011.6
20260508114246 70 39 3.0 5.0 0.00 0.00 0.00 96 1011.6
20260508114147 70 36 3.0 5.0 0.00 0.00 0.00 96 1011.6
20260508114103 70 41 3.0 5.0 0.00 0.00 0.00 96 1011.6
20260508114047 70 53 3.0 5.0 0.00 0.00 0.00 96 1011.7
20260508113947 70 29 2.0 5.0 0.00 0.00 0.00 96 1011.8
20260508113819 70 4 2.0 4.0 0.00 0.00 0.00 96 1011.8
20260508113703 70 59 2.0 4.0 0.00 0.00 0.00 96 1011.8
20260508113603 70 30 2.0 5.0 0.00 0.00 0.00 96 1011.8
20260508113449 71 8 2.0 5.0 0.00 0.00 0.00 96 1011.9
20260508113349 71 15 2.0 5.0 0.00 0.00 0.00 96 1011.9
20260508113248 71 59 2.0 5.0 0.00 0.00 0.00 96 1012.0
20260508113104 71 347 3.0 9.0 0.00 0.00 0.00 96 1012.0
20260508112947 71 1 3.0 9.0 0.00 0.00 0.00 96 1012.0
20260508112847 71 346 3.0 9.0 0.00 0.00 0.00 96 1011.9
20260508112737 71 354 3.0 9.0 0.00 0.00 0.00 96 1011.9
20260508112637 71 335 3.0 9.0 0.00 0.00 0.00 96 1011.9
20260508112537 71 36 3.0 9.0 0.00 0.00 0.00 96 1011.8
20260508112523 71 28 3.0 9.0 0.00 0.00 0.00 96 1011.8
20260508112436 71 77 3.0 9.0 0.00 0.00 0.00 96 1011.8
20260508112331 71 35 3.0 9.0 0.00 0.00 0.00 96 1011.8
20260508112231 72 26 3.0 6.0 0.00 0.00 0.00 96 1011.8
20260508112113 72 51 3.0 6.0 0.00 0.00 0.00 96 1011.8
20260508112018 72 31 2.0 5.0 0.00 0.00 0.00 97 1011.8
20260508112007 72 28 2.0 5.0 0.00 0.00 0.00 97 1011.8
20260508111904 72 359 2.0 4.0 0.00 0.00 0.00 97 1011.8
20260508111804 72 21 2.0 4.0 0.00 0.00 0.00 97 1011.9
20260508111647 72 334 1.0 3.0 0.00 0.00 0.00 97 1011.9
20260508111547 72 11 2.0 3.0 0.00 0.00 0.00 97 1011.9
20260508111517 72 26 1.0 3.0 0.00 0.00 0.00 97 1011.9
20260508111448 72 31 1.0 3.0 0.00 0.00 0.00 97 1011.9
20260508111333 72 10 1.0 3.0 0.00 0.00 0.00 97 1011.9
20260508111147 72 355 1.0 3.0 0.00 0.00 0.00 97 1011.9
20260508111048 72 14 1.0 2.0 0.00 0.00 0.00 97 1012.0
20260508111018 72 6 1.0 2.0 0.00 0.00 0.00 97 1012.0
20260508110934 72 25 1.0 2.0 0.00 0.00 0.00 97 1012.0
20260508110834 72 1 1.0 2.0 0.00 0.00 0.00 97 1012.0
20260508110734 72 35 1.0 2.0 0.00 0.00 0.00 97 1012.1
20260508110634 72 353 1.0 2.0 0.00 0.00 0.00 97 1012.1
20260508110534 72 18 1.0 2.0 0.00 0.00 0.00 97 1012.1
20260508110503 72 0 1.0 2.0 0.00 0.00 0.00 97 1012.1
20260508110434 72 357 1.0 2.0 0.00 0.00 0.00 97 1012.1
20260508110319 72 335 1.0 2.0 0.00 0.00 0.00 97 1012.1
20260508110149 72 3 1.0 2.0 0.00 0.00 0.00 97 1012.1
20260508110047 72 344 1.0 2.0 0.00 0.00 0.00 97 1012.1
20260508105948 72 60 0.0 2.0 0.00 0.00 0.00 97 1012.1
20260508105848 72 82 0.0 2.0 0.00 0.00 0.00 97 1012.1
20260508105748 72 246 1.0 2.0 0.00 0.00 0.00 97 1012.1
20260508105648 72 146 1.0 2.0 0.00 0.00 0.00 97 1012.1
20260508105547 72 0 1.0 3.0 0.00 0.00 0.00 97 1012.0
20260508105447 72 352 1.0 3.0 0.00 0.00 0.00 97 1011.9
20260508105347 72 270 1.0 3.0 0.00 0.00 0.00 97 1011.9
20260508105247 72 344 1.0 3.0 0.00 0.00 0.00 97 1011.8
20260508105148 72 0 1.0 3.0 0.00 0.00 0.00 97 1011.8
20260508105018 72 66 1.0 3.0 0.00 0.00 0.00 97 1011.7
20260508104932 72 66 1.0 3.0 0.00 0.00 0.00 97 1011.7
20260508104904 72 90 1.0 3.0 0.00 0.00 0.00 97 1011.7
20260508104805 72 89 1.0 3.0 0.00 0.00 0.00 97 1011.7
20260508104704 72 68 1.0 3.0 0.00 0.00 0.00 97 1011.6
20260508104549 72 93 1.0 3.0 0.00 0.00 0.00 97 1011.6
20260508104449 72 80 1.0 3.0 0.00 0.00 0.00 97 1011.6
20260508104418 72 83 1.0 2.0 0.00 0.00 0.00 97 1011.6
20260508104348 72 0 1.0 2.0 0.00 0.00 0.00 97 1011.6
20260508104249 72 223 1.0 2.0 0.00 0.00 0.00 97 1011.6
20260508104149 72 112 1.0 2.0 0.00 0.00 0.00 96 1011.6
20260508104050 72 144 1.0 2.0 0.00 0.00 0.00 96 1011.5
20260508103949 72 0 1.0 2.0 0.00 0.00 0.00 96 1011.5
20260508103902 72 11 1.0 2.0 0.00 0.00 0.00 96 1011.5
20260508103848 72 11 1.0 2.0 0.00 0.00 0.00 96 1011.5
20260508103748 72 16 1.0 2.0 0.00 0.00 0.00 96 1011.4
20260508103634 72 52 1.0 2.0 0.00 0.00 0.00 96 1011.4
20260508103534 72 59 1.0 2.0 0.00 0.00 0.00 96 1011.5
20260508103419 72 3 1.0 2.0 0.00 0.00 0.00 96 1011.5
20260508103403 72 5 1.0 2.0 0.00 0.00 0.00 96 1011.5
20260508103319 72 35 1.0 2.0 0.00 0.00 0.00 96 1011.5
20260508103220 72 55 1.0 2.0 0.00 0.00 0.00 96 1011.6
20260508103120 72 34 1.0 2.0 0.00 0.00 0.00 96 1011.6
20260508103020 72 7 1.0 2.0 0.00 0.00 0.00 96 1011.6
20260508102919 72 33 1.0 2.0 0.00 0.00 0.00 96 1011.6
20260508102848 72 46 1.0 2.0 0.00 0.00 0.00 96 1011.6
20260508102819 72 32 1.0 2.0 0.00 0.00 0.00 96 1011.6
20260508102705 72 44 1.0 2.0 0.00 0.00 0.00 96 1011.6
20260508102549 72 38 1.0 2.0 0.00 0.00 0.00 96 1011.6
20260508102449 72 168 1.0 2.0 0.00 0.00 0.00 96 1011.6
20260508102350 72 132 1.0 3.0 0.00 0.00 0.00 96 1011.6
20260508102248 72 29 1.0 3.0 0.00 0.00 0.00 96 1011.6
20260508102148 72 156 1.0 3.0 0.00 0.00 0.00 96 1011.6
20260508102048 72 104 2.0 3.0 0.00 0.00 0.00 96 1011.7
20260508101948 72 86 2.0 3.0 0.00 0.00 0.00 96 1011.7
20260508101849 72 78 2.0 3.0 0.00 0.00 0.00 96 1011.7
20260508101749 72 89 2.0 3.0 0.00 0.00 0.00 96 1011.7
20260508101635 72 42 2.0 4.0 0.00 0.00 0.00 96 1011.7
20260508101534 72 44 2.0 4.0 0.00 0.00 0.00 96 1011.7
20260508101434 72 43 2.0 4.0 0.00 0.00 0.00 96 1011.7
20260508101347 72 49 2.0 4.0 0.00 0.00 0.00 96 1011.9
20260508101320 72 36 2.0 4.0 0.00 0.00 0.00 96 1011.9
20260508101150 72 19 2.0 4.0 0.00 0.00 0.00 96 1011.9
20260508101049 72 351 1.0 4.0 0.00 0.00 0.00 96 1011.9
20260508100948 71 25 1.0 4.0 0.00 0.00 0.00 96 1011.9
20260508100849 71 7 1.0 4.0 0.00 0.00 0.00 96 1011.9
20260508100720 71 289 1.0 3.0 0.00 0.00 0.00 96 1011.8
20260508100605 71 14 1.0 3.0 0.00 0.00 0.00 96 1011.7
20260508100504 71 45 1.0 3.0 0.00 0.00 0.00 96 1011.7
20260508100405 72 35 1.0 2.0 0.00 0.00 0.00 96 1011.7
20260508100305 71 9 1.0 2.0 0.00 0.00 0.00 96 1011.6
20260508100148 71 0 1.0 2.0 0.00 0.00 0.00 96 1011.6
20260508100034 71 268 2.0 2.0 0.00 0.00 0.00 96 1011.5
20260508095920 71 24 2.0 2.0 0.00 0.00 0.00 96 1011.5
20260508095820 71 359 2.0 3.0 0.00 0.00 0.00 96 1011.5
20260508095747 71 37 2.0 3.0 0.00 0.00 0.00 96 1011.5
20260508095705 71 32 2.0 3.0 0.00 0.00 0.00 96 1011.5
20260508095550 71 17 2.0 3.0 0.00 0.00 0.00 96 1011.5
20260508095450 71 13 2.0 3.0 0.00 0.00 0.00 96 1011.5
20260508095350 71 18 1.0 3.0 0.00 0.00 0.00 96 1011.6
20260508095253 71 85 1.0 3.0 0.00 0.00 0.00 96 1011.6
20260508095248 71 39 1.0 3.0 0.00 0.00 0.00 96 1011.6
20260508095150 71 4 1.0 3.0 0.00 0.00 0.00 96 1011.6
20260508095050 71 12 1.0 3.0 0.00 0.00 0.00 96 1011.8
20260508094951 71 35 1.0 3.0 0.00 0.00 0.00 96 1011.8
20260508094850 71 62 1.0 3.0 0.00 0.00 0.00 96 1011.8
20260508094750 71 40 1.0 3.0 0.00 0.00 0.00 96 1011.8
20260508094734 71 43 1.0 3.0 0.00 0.00 0.00 96 1011.8
20260508094650 71 23 1.0 3.0 0.00 0.00 0.00 96 1011.8
20260508094550 71 5 1.0 3.0 0.00 0.00 0.00 96 1011.9
20260508094451 71 26 1.0 3.0 0.00 0.00 0.00 96 1011.9
20260508094349 71 347 1.0 3.0 0.00 0.00 0.00 96 1011.9
20260508094235 71 25 1.0 3.0 0.00 0.00 0.00 96 1012.0
20260508094050 71 39 1.0 3.0 0.00 0.00 0.00 96 1012.0
20260508093950 71 65 1.0 3.0 0.00 0.00 0.00 96 1012.0
20260508093849 71 28 1.0 3.0 0.00 0.00 0.00 96 1012.0
20260508093749 71 288 1.0 2.0 0.00 0.00 0.00 96 1012.0
20260508093635 71 356 1.0 2.0 0.00 0.00 0.00 96 1012.0
20260508093534 71 25 1.0 2.0 0.00 0.00 0.00 96 1012.0
20260508093420 71 0 1.0 2.0 0.00 0.00 0.00 96 1012.0
20260508093321 71 17 1.0 2.0 0.00 0.00 0.00 96 1012.0
20260508093205 71 27 1.0 2.0 0.00 0.00 0.00 96 1012.0
20260508093148 71 264 1.0 2.0 0.00 0.00 0.00 96 1012.0
20260508093105 71 2 1.0 2.0 0.00 0.00 0.00 96 1012.0
20260508093006 71 326 1.0 2.0 0.00 0.00 0.00 96 1011.9
20260508092851 71 3 1.0 2.0 0.00 0.00 0.00 96 1011.9
20260508092749 71 17 1.0 2.0 0.00 0.00 0.00 96 1011.9
20260508092649 71 5 1.0 2.0 0.00 0.00 0.00 95 1011.8
20260508092521 71 11 1.0 2.0 0.00 0.00 0.00 95 1011.8
20260508092421 71 342 1.0 2.0 0.00 0.00 0.00 95 1011.8
20260508092312 71 337 1.0 2.0 0.00 0.00 0.00 95 1011.8
20260508092205 71 20 1.0 2.0 0.00 0.00 0.00 95 1011.8
20260508092148 71 31 1.0 2.0 0.00 0.00 0.00 95 1011.8
20260508092105 71 59 1.0 2.0 0.00 0.00 0.00 95 1011.8
20260508092005 71 19 1.0 2.0 0.00 0.00 0.00 95 1011.7
20260508091851 71 12 1.0 2.0 0.00 0.00 0.00 95 1011.7
20260508091749 71 31 1.0 2.0 0.00 0.00 0.00 95 1011.7
20260508091634 71 43 1.0 2.0 0.00 0.00 0.00 95 1011.7
20260508091549 71 37 1.0 2.0 0.00 0.00 0.00 95 1011.7
20260508091406 71 243 1.0 2.0 0.00 0.00 0.00 95 1011.7
20260508091236 71 37 1.0 2.0 0.00 0.00 0.00 95 1011.7
20260508091120 71 21 1.0 2.0 0.00 0.00 0.00 95 1011.8
20260508091104 71 44 1.0 2.0 0.00 0.00 0.00 95 1011.8
20260508091021 71 53 1.0 2.0 0.00 0.00 0.00 95 1011.8
20260508090920 71 55 1.0 2.0 0.00 0.00 0.00 95 1011.8
20260508090821 71 50 1.0 2.0 0.00 0.00 0.00 95 1011.8
20260508090706 71 47 1.0 2.0 0.00 0.00 0.00 95 1011.8
20260508090554 71 32 1.0 2.0 0.00 0.00 0.00 95 1011.8
20260508090549 71 56 0.0 2.0 0.00 0.00 0.00 95 1011.8
20260508090450 71 54 0.0 1.0 0.00 0.00 0.00 95 1011.9
20260508090350 71 0 0.0 1.0 0.00 0.00 0.00 95 1011.9
20260508090250 71 0 1.0 2.0 0.00 0.00 0.00 95 1011.9
20260508090149 71 275 1.0 2.0 0.00 0.00 0.00 95 1011.9
20260508090053 71 348 1.0 2.0 0.00 0.00 0.00 95 1011.9
20260508090049 71 70 1.0 2.0 0.00 0.00 0.00 95 1011.9
20260508085921 71 53 1.0 2.0 0.00 0.00 0.00 95 1011.9
20260508085821 71 0 0.0 2.0 0.00 0.00 0.00 95 1011.9
20260508085720 71 353 0.0 2.0 0.00 0.00 0.00 95 1011.8
20260508085620 71 82 1.0 2.0 0.00 0.00 0.00 94 1011.8
20260508085520 71 0 1.0 2.0 0.00 0.00 0.00 94 1011.8
20260508085406 71 31 1.0 2.0 0.00 0.00 0.00 94 1011.8
20260508085251 71 42 0.0 2.0 0.00 0.00 0.00 94 1011.8
20260508085151 71 254 0.0 2.0 0.00 0.00 0.00 94 1011.8
20260508085050 71 66 0.0 2.0 0.00 0.00 0.00 94 1011.8
20260508085019 71 3 0.0 2.0 0.00 0.00 0.00 94 1011.8
20260508084951 71 241 0.0 2.0 0.00 0.00 0.00 94 1011.8
20260508084849 71 70 1.0 2.0 0.00 0.00 0.00 94 1011.8
20260508084749 71 151 1.0 2.0 0.00 0.00 0.00 94 1011.8
20260508084649 71 110 1.0 2.0 0.00 0.00 0.00 94 1011.7
20260508084519 72 0 1.0 2.0 0.00 0.00 0.00 94 1011.7
20260508084421 72 39 1.0 3.0 0.00 0.00 0.00 94 1011.8
20260508084248 72 35 1.0 3.0 0.00 0.00 0.00 94 1011.8
20260508084134 72 4 2.0 3.0 0.00 0.00 0.00 94 1011.8
20260508084035 72 57 2.0 3.0 0.00 0.00 0.00 94 1011.8
20260508084006 72 27 2.0 3.0 0.00 0.00 0.00 94 1011.8
20260508083935 72 52 2.0 4.0 0.00 0.00 0.00 94 1011.8
20260508083835 72 20 2.0 4.0 0.00 0.00 0.00 94 1011.8
20260508083720 72 4 2.0 4.0 0.00 0.00 0.00 93 1011.8
20260508083620 72 346 2.0 4.0 0.00 0.00 0.00 93 1011.9
20260508083504 72 24 2.0 4.0 0.00 0.00 0.00 93 1011.9
20260508083350 72 9 2.0 4.0 0.00 0.00 0.00 93 1011.9
20260508083250 72 79 2.0 4.0 0.00 0.00 0.00 93 1011.9
20260508083122 72 59 2.0 4.0 0.00 0.00 0.00 93 1011.9
20260508082951 72 80 2.0 4.0 0.00 0.00 0.00 93 1011.9
20260508082806 72 87 2.0 4.0 0.00 0.00 0.00 93 1011.9
20260508082706 72 54 2.0 4.0 0.00 0.00 0.00 92 1011.8
20260508082633 72 98 3.0 5.0 0.00 0.00 0.00 92 1011.8
20260508082606 72 114 2.0 4.0 0.00 0.00 0.00 92 1011.8
20260508082516 72 70 2.0 5.0 0.00 0.00 0.00 92 1011.8
20260508082510 72 98 3.0 5.0 0.00 0.00 0.00 92 1011.8
20260508082237 72 70 3.0 5.0 0.00 0.00 0.00 91 1011.8
20260508082137 72 126 3.0 5.0 0.00 0.00 0.00 91 1011.8
20260508082027 72 135 3.0 5.0 0.00 0.00 0.00 91 1011.8
20260508081921 72 72 3.0 5.0 0.00 0.00 0.00 91 1011.8
20260508081902 72 74 3.0 5.0 0.00 0.00 0.00 91 1011.8
20260508081821 72 105 3.0 5.0 0.00 0.00 0.00 91 1011.8
20260508081723 73 102 3.0 5.0 0.00 0.00 0.00 91 1011.9
20260508081609 73 75 3.0 5.0 0.00 0.00 0.00 91 1011.9
20260508081504 73 87 3.0 5.0 0.00 0.00 0.00 90 1011.9
20260508081403 73 101 3.0 5.0 0.00 0.00 0.00 90 1011.9
20260508081303 73 97 3.0 5.0 0.00 0.00 0.00 90 1012.2
20260508081152 73 98 3.0 5.0 0.00 0.00 0.00 90 1012.2
20260508081052 73 121 2.0 4.0 0.00 0.00 0.00 90 1012.2
20260508080951 73 106 2.0 4.0 0.00 0.00 0.00 90 1012.2
20260508080851 73 108 2.0 4.0 0.00 0.00 0.00 90 1012.2
20260508080806 73 150 2.0 4.0 0.00 0.00 0.00 90 1012.2
20260508080652 73 90 2.0 4.0 0.00 0.00 0.00 90 1012.2
20260508080452 73 52 2.0 4.0 0.00 0.00 0.00 90 1012.2
20260508080350 73 91 2.0 3.0 0.00 0.00 0.00 90 1012.2
20260508075951 73 133 2.0 6.0 0.00 0.00 0.00 90 1012.2
20260508075837 73 106 2.0 6.0 0.00 0.00 0.00 90 1012.2
20260508075721 73 88 2.0 6.0 0.00 0.00 0.00 90 1012.2
20260508075650 73 103 2.0 6.0 0.00 0.00 0.00 90 1012.2
20260508075621 73 95 2.0 6.0 0.00 0.00 0.00 90 1012.2
20260508075519 73 130 2.0 6.0 0.00 0.00 0.00 90 1012.2
20260508075416 73 36 2.0 6.0 0.00 0.00 0.00 89 1012.2
20260508075316 73 119 2.0 6.0 0.00 0.00 0.00 89 1012.2
20260508075213 73 132 2.0 6.0 0.00 0.00 0.00 89 1012.2
20260508075149 73 109 2.0 6.0 0.00 0.00 0.00 89 1012.2
20260508075136 73 105 2.0 5.0 0.00 0.00 0.00 89 1012.0
20260508075110 73 77 2.0 6.0 0.00 0.00 0.00 89 1012.2
20260508075016 73 66 2.0 6.0 0.00 0.00 0.00 89 1012.2
20260508074900 73 154 2.0 6.0 0.00 0.00 0.00 89 1012.2
20260508074759 73 86 2.0 6.0 0.00 0.00 0.00 89 1012.2
20260508074754 73 47 2.0 5.0 0.00 0.00 0.00 89 1012.1
20260508074551 73 131 1.0 5.0 0.00 0.00 0.00 89 1012.0
20260508074451 73 119 1.0 4.0 0.00 0.00 0.00 89 1012.0
20260508074351 73 85 2.0 5.0 0.00 0.00 0.00 89 1012.0
20260508074251 73 130 2.0 5.0 0.00 0.00 0.00 89 1012.0
20260508074149 73 124 2.0 5.0 0.00 0.00 0.00 89 1012.0
20260508074043 73 108 2.0 5.0 0.00 0.00 0.00 88 1012.1
20260508073943 73 45 2.0 5.0 0.00 0.00 0.00 88 1012.1
20260508073847 73 120 2.0 5.0 0.00 0.00 0.00 88 1012.1
20260508073737 73 240 2.0 5.0 0.00 0.00 0.00 88 1012.1
20260508073648 73 98 2.0 5.0 0.00 0.00 0.00 88 1012.0
20260508073637 73 85 2.0 5.0 0.00 0.00 0.00 88 1012.0
20260508073531 73 87 2.0 5.0 0.00 0.00 0.00 88 1012.0
20260508073428 73 160 1.0 5.0 0.00 0.00 0.00 89 1012.0
20260508073325 73 19 1.0 5.0 0.00 0.00 0.00 89 1012.0
20260508073216 73 96 1.0 3.0 0.00 0.00 0.00 89 1012.1
20260508073145 73 3 1.0 3.0 0.00 0.00 0.00 89 1012.1
20260508073116 73 22 1.0 3.0 0.00 0.00 0.00 89 1012.1
20260508073015 73 97 1.0 3.0 0.00 0.00 0.00 89 1012.1
20260508072919 73 0 1.0 3.0 0.00 0.00 0.00 88 1012.1
20260508072913 73 64 1.0 3.0 0.00 0.00 0.00 88 1012.1
20260508072810 73 59 1.0 3.0 0.00 0.00 0.00 88 1012.1
20260508072750 73 331 1.0 3.0 0.00 0.00 0.00 88 1012.1
20260508072600 73 0 1.0 3.0 0.00 0.00 0.00 88 1012.1
20260508072501 73 3 1.0 3.0 0.00 0.00 0.00 88 1012.1
20260508072358 73 110 1.0 3.0 0.00 0.00 0.00 88 1012.2
20260508072258 73 40 1.0 3.0 0.00 0.00 0.00 88 1012.2
20260508072157 74 81 1.0 3.0 0.00 0.00 0.00 88 1012.2
20260508072142 74 96 1.0 3.0 0.00 0.00 0.00 88 1012.2
20260508072049 74 98 1.0 3.0 0.00 0.00 0.00 88 1012.2
20260508071946 74 138 1.0 3.0 0.00 0.00 0.00 88 1012.2
20260508071843 74 151 1.0 3.0 0.00 0.00 0.00 88 1012.3
20260508071740 74 106 1.0 3.0 0.00 0.00 0.00 88 1012.3
20260508071640 74 90 1.0 3.0 0.00 0.00 0.00 88 1012.3
20260508071633 74 101 1.0 3.0 0.00 0.00 0.00 88 1012.3
20260508071537 74 60 1.0 3.0 0.00 0.00 0.00 88 1012.4
20260508071434 74 55 1.0 3.0 0.00 0.00 0.00 88 1012.5
20260508071334 74 74 1.0 3.0 0.00 0.00 0.00 88 1012.6
20260508071234 74 160 1.0 3.0 0.00 0.00 0.00 88 1012.7
20260508071134 74 0 1.0 3.0 0.00 0.00 0.00 88 1012.7
20260508071025 74 111 1.0 3.0 0.00 0.00 0.00 88 1012.7
20260508070925 74 90 1.0 3.0 0.00 0.00 0.00 88 1012.7
20260508070825 74 121 1.0 3.0 0.00 0.00 0.00 88 1012.6
20260508070725 74 93 1.0 3.0 0.00 0.00 0.00 88 1012.6
20260508070625 74 0 1.0 3.0 0.00 0.00 0.00 88 1012.6
20260508070523 74 60 1.0 3.0 0.00 0.00 0.00 88 1012.6
20260508070422 74 90 1.0 3.0 0.00 0.00 0.00 88 1012.5
20260508070322 74 72 1.0 3.0 0.00 0.00 0.00 88 1012.5
20260508070222 74 105 1.0 4.0 0.00 0.00 0.00 88 1012.5
20260508070122 74 85 1.0 4.0 0.00 0.00 0.00 88 1012.5
20260508070022 74 167 0.0 4.0 0.00 0.00 0.00 88 1012.5
20260508065922 74 175 1.0 5.0 0.00 0.00 0.00 88 1012.6
20260508065822 74 0 1.0 5.0 0.00 0.00 0.00 88 1012.6
20260508065722 74 8 1.0 5.0 0.00 0.00 0.00 88 1012.6
20260508065622 74 57 1.0 5.0 0.00 0.00 0.00 88 1012.6
20260508065522 74 0 1.0 5.0 0.00 0.00 0.00 88 1012.6
20260508065419 74 357 1.0 5.0 0.00 0.00 0.00 88 1012.6
20260508065319 74 261 1.0 5.0 0.00 0.00 0.00 88 1012.5
20260508065219 74 20 1.0 5.0 0.00 0.00 0.00 88 1012.4
20260508065120 74 233 1.0 5.0 0.00 0.00 0.00 88 1012.4
20260508065020 74 37 1.0 5.0 0.00 0.00 0.00 88 1012.4
20260508064920 74 19 1.0 5.0 0.00 0.00 0.00 88 1012.3
20260508064842 73 84 1.0 4.0 0.00 0.00 0.00 88 1012.3
20260508064820 73 322 1.0 3.0 0.00 0.00 0.00 88 1012.3
20260508064728 73 51 1.0 4.0 0.00 0.00 0.00 88 1012.3
20260508064619 73 0 1.0 4.0 0.00 0.00 0.00 88 1012.3
20260508064520 73 65 1.0 4.0 0.00 0.00 0.00 88 1012.3
20260508064420 73 29 1.0 4.0 0.00 0.00 0.00 88 1012.2
20260508064347 73 62 1.0 4.0 0.00 0.00 0.00 88 1012.1
20260508064319 73 0 1.0 4.0 0.00 0.00 0.00 88 1012.2
20260508064227 73 355 1.0 4.0 0.00 0.00 0.00 88 1012.2
20260508064114 73 132 1.0 4.0 0.00 0.00 0.00 88 1012.1
20260508064014 73 1 1.0 4.0 0.00 0.00 0.00 88 1012.1
20260508063914 73 26 2.0 4.0 0.00 0.00 0.00 88 1012.0
20260508063814 73 36 2.0 4.0 0.00 0.00 0.00 88 1012.0
20260508063714 73 38 2.0 4.0 0.00 0.00 0.00 88 1011.9
20260508063621 73 39 1.0 4.0 0.00 0.00 0.00 89 1011.9
20260508063614 73 10 1.0 4.0 0.00 0.00 0.00 89 1011.9
20260508063514 73 36 1.0 4.0 0.00 0.00 0.00 89 1011.9
20260508063414 73 343 1.0 4.0 0.00 0.00 0.00 89 1011.9
20260508063311 73 339 2.0 4.0 0.00 0.00 0.00 89 1011.9
20260508063204 73 16 2.0 4.0 0.00 0.00 0.00 89 1011.9
20260508063122 73 119 2.0 4.0 0.00 0.00 0.00 89 1011.9
20260508063102 73 25 2.0 4.0 0.00 0.00 0.00 89 1011.9
20260508063001 73 16 2.0 4.0 0.00 0.00 0.00 89 1011.9
20260508062901 73 27 2.0 4.0 0.00 0.00 0.00 89 1011.7
20260508062801 73 343 2.0 4.0 0.00 0.00 0.00 89 1011.7
20260508062659 73 302 2.0 4.0 0.00 0.00 0.00 89 1011.7
20260508062619 73 329 2.0 4.0 0.00 0.00 0.00 89 1011.7
20260508062559 73 293 2.0 4.0 0.00 0.00 0.00 89 1011.7
20260508062459 73 3 2.0 4.0 0.00 0.00 0.00 89 1011.7
20260508062359 73 4 2.0 4.0 0.00 0.00 0.00 89 1011.7
20260508062256 73 4 2.0 4.0 0.00 0.00 0.00 89 1011.6
20260508062156 73 16 2.0 4.0 0.00 0.00 0.00 89 1011.7
20260508062115 73 36 2.0 4.0 0.00 0.00 0.00 89 1011.7
20260508062056 73 4 2.0 4.0 0.00 0.00 0.00 89 1011.7
20260508061956 73 37 2.0 4.0 0.00 0.00 0.00 89 1011.8
20260508061856 73 29 2.0 4.0 0.00 0.00 0.00 89 1011.9
20260508061756 73 20 1.0 4.0 0.00 0.00 0.00 89 1011.9
20260508061656 73 38 1.0 3.0 0.00 0.00 0.00 89 1012.0
20260508061616 73 16 1.0 3.0 0.00 0.00 0.00 89 1012.1
20260508061553 73 28 1.0 3.0 0.00 0.00 0.00 89 1012.1
20260508061453 73 32 1.0 2.0 0.00 0.00 0.00 89 1012.2
20260508061353 73 4 1.0 2.0 0.00 0.00 0.00 88 1012.4
20260508061252 73 0 1.0 2.0 0.00 0.00 0.00 88 1012.4
20260508061152 73 47 1.0 2.0 0.00 0.00 0.00 88 1012.5
20260508061116 73 73 1.0 2.0 0.00 0.00 0.00 88 1012.5
20260508061051 73 79 0.0 2.0 0.00 0.00 0.00 88 1012.5
20260508060951 73 0 0.0 2.0 0.00 0.00 0.00 88 1012.5
20260508060849 73 58 1.0 2.0 0.00 0.00 0.00 88 1012.6
20260508060835 73 22 1.0 2.0 0.00 0.00 0.00 88 1012.7
20260508060747 73 67 1.0 2.0 0.00 0.00 0.00 88 1012.6
20260508060721 73 24 1.0 2.0 0.00 0.00 0.00 88 1012.7
20260508060544 73 282 1.0 2.0 0.00 0.00 0.00 88 1012.7
20260508060435 73 324 1.0 2.0 0.00 0.00 0.00 88 1012.7
20260508060334 73 346 1.0 2.0 0.00 0.00 0.00 88 1012.7
20260508060232 73 326 1.0 2.0 0.00 0.00 0.00 88 1012.7
20260508060132 73 69 1.0 2.0 0.00 0.00 0.00 88 1012.7
20260508060116 73 90 1.0 2.0 0.00 0.00 0.00 88 1012.7
20260508060032 73 92 1.0 2.0 0.00 0.00 0.00 88 1012.7
20260508055929 73 159 1.0 2.0 0.00 0.00 0.00 88 1012.8
20260508055829 73 126 0.0 2.0 0.00 0.00 0.00 88 1012.7
20260508055729 73 212 0.0 2.0 0.00 0.00 0.00 88 1012.7
20260508055629 73 167 1.0 3.0 0.00 0.00 0.00 88 1012.7
20260508055604 73 0 1.0 3.0 0.00 0.00 0.00 88 1012.7
20260508055530 73 248 1.0 3.0 0.00 0.00 0.00 88 1012.6
20260508055427 73 2 1.0 3.0 0.00 0.00 0.00 88 1012.6
20260508055327 73 295 1.0 3.0 0.00 0.00 0.00 88 1012.6
20260508055227 73 3 1.0 3.0 0.00 0.00 0.00 87 1012.6
20260508055117 73 254 1.0 3.0 0.00 0.00 0.00 87 1012.6
20260508055101 73 282 1.0 3.0 0.00 0.00 0.00 87 1012.6
20260508055017 73 331 1.0 3.0 0.00 0.00 0.00 87 1012.6
20260508054917 73 0 1.0 3.0 0.00 0.00 0.00 87 1012.6
20260508054817 73 5 0.0 3.0 0.00 0.00 0.00 87 1012.6
20260508054717 73 277 0.0 3.0 0.00 0.00 0.00 87 1012.6
20260508054612 73 110 0.0 2.0 0.00 0.00 0.00 87 1012.6
20260508054558 73 120 0.0 2.0 0.00 0.00 0.00 87 1012.6
20260508054511 73 92 0.0 2.0 0.00 0.00 0.00 87 1012.6
20260508054411 73 0 0.0 2.0 0.00 0.00 0.00 87 1012.6
20260508054312 73 83 0.0 2.0 0.00 0.00 0.00 87 1012.7
20260508054211 73 0 0.0 2.0 0.00 0.00 0.00 87 1012.7
20260508054111 73 168 0.0 2.0 0.00 0.00 0.00 87 1012.7
20260508054052 73 285 0.0 2.0 0.00 0.00 0.00 87 1012.7
20260508054012 73 251 0.0 2.0 0.00 0.00 0.00 87 1012.7
20260508053911 73 0 1.0 2.0 0.00 0.00 0.00 87 1012.5
20260508053811 73 128 1.0 2.0 0.00 0.00 0.00 87 1012.5
20260508053711 73 140 1.0 2.0 0.00 0.00 0.00 87 1012.5
20260508053609 73 284 1.0 2.0 0.00 0.00 0.00 87 1012.4
20260508053551 73 224 1.0 2.0 0.00 0.00 0.00 87 1012.2
20260508053505 73 0 1.0 2.0 0.00 0.00 0.00 87 1012.2
20260508053359 73 66 1.0 2.0 0.00 0.00 0.00 87 1012.2
20260508053259 73 0 1.0 2.0 0.00 0.00 0.00 87 1012.2
20260508053156 73 86 1.0 2.0 0.00 0.00 0.00 87 1012.1
20260508053057 73 116 0.0 2.0 0.00 0.00 0.00 87 1012.1
20260508053049 73 97 0.0 2.0 0.00 0.00 0.00 87 1012.1
20260508052957 73 72 0.0 2.0 0.00 0.00 0.00 87 1012.1
20260508052856 73 0 0.0 2.0 0.00 0.00 0.00 87 1012.1
20260508052757 73 70 0.0 2.0 0.00 0.00 0.00 86 1012.1
20260508052654 73 99 0.0 2.0 0.00 0.00 0.00 86 1012.1
20260508052555 73 37 0.0 3.0 0.00 0.00 0.00 86 1012.1
20260508052549 73 0 0.0 3.0 0.00 0.00 0.00 86 1012.0
20260508052453 73 79 0.0 3.0 0.00 0.00 0.00 86 1012.0
20260508052353 73 0 1.0 3.0 0.00 0.00 0.00 86 1012.0
20260508052253 73 182 1.0 4.0 0.00 0.00 0.00 86 1012.0
20260508052153 73 357 1.0 4.0 0.00 0.00 0.00 86 1011.9
20260508052053 73 15 1.0 4.0 0.00 0.00 0.00 86 1011.9
20260508052046 73 43 1.0 4.0 0.00 0.00 0.00 86 1011.9
20260508051952 73 22 1.0 4.0 0.00 0.00 0.00 86 1011.9
20260508051852 73 44 1.0 4.0 0.00 0.00 0.00 86 1011.9
20260508051752 73 57 1.0 4.0 0.00 0.00 0.00 86 1011.9
20260508051652 73 334 1.0 4.0 0.00 0.00 0.00 86 1011.9
20260508051552 73 68 1.0 4.0 0.00 0.00 0.00 86 1011.9
20260508051546 73 62 1.0 4.0 0.00 0.00 0.00 86 1011.9
20260508051451 73 59 1.0 4.0 0.00 0.00 0.00 86 1011.9
20260508051351 73 45 1.0 4.0 0.00 0.00 0.00 86 1011.9
20260508051251 73 106 1.0 4.0 0.00 0.00 0.00 86 1011.9
20260508051151 73 46 1.0 4.0 0.00 0.00 0.00 86 1011.9
20260508051043 73 35 1.0 4.0 0.00 0.00 0.00 86 1011.9
20260508050947 73 102 1.0 4.0 0.00 0.00 0.00 86 1011.9
20260508050848 73 44 1.0 4.0 0.00 0.00 0.00 86 1011.9
20260508050744 73 58 1.0 4.0 0.00 0.00 0.00 86 1011.9
20260508050644 73 35 2.0 4.0 0.00 0.00 0.00 86 1011.9
20260508050547 73 91 2.0 4.0 0.00 0.00 0.00 86 1011.9
20260508050541 73 99 2.0 4.0 0.00 0.00 0.00 86 1011.9
20260508050445 73 47 2.0 4.0 0.00 0.00 0.00 86 1011.9
20260508050344 73 343 2.0 4.0 0.00 0.00 0.00 86 1012.0
20260508050244 73 2 2.0 4.0 0.00 0.00 0.00 86 1012.0
20260508050145 73 39 2.0 4.0 0.00 0.00 0.00 86 1012.0
20260508050042 73 67 2.0 5.0 0.00 0.00 0.00 86 1012.0
20260508045942 73 80 2.0 5.0 0.00 0.00 0.00 86 1012.0
20260508045842 73 87 2.0 5.0 0.00 0.00 0.00 86 1012.0
20260508045742 73 125 2.0 5.0 0.00 0.00 0.00 86 1012.0
20260508045642 73 110 2.0 5.0 0.00 0.00 0.00 86 1012.0
20260508045542 73 0 2.0 5.0 0.00 0.00 0.00 86 1012.0
20260508045439 73 104 2.0 5.0 0.00 0.00 0.00 85 1012.2
20260508045339 73 61 2.0 6.0 0.00 0.00 0.00 85 1012.2
20260508045306 73 99 2.0 6.0 0.00 0.00 0.00 85 1012.3
20260508045233 73 77 2.0 6.0 0.00 0.00 0.00 85 1012.2
20260508045148 73 130 2.0 6.0 0.00 0.00 0.00 85 1012.3
20260508045038 73 108 2.0 6.0 0.00 0.00 0.00 85 1012.3
20260508044933 73 164 2.0 6.0 0.00 0.00 0.00 85 1012.2
20260508044833 73 66 2.0 6.0 0.00 0.00 0.00 85 1012.2
20260508044733 73 83 2.0 7.0 0.00 0.00 0.00 85 1012.1
20260508044633 73 308 3.0 7.0 0.00 0.00 0.00 85 1012.0
20260508044537 73 100 3.0 7.0 0.00 0.00 0.00 85 1011.8
20260508044533 73 99 3.0 7.0 0.00 0.00 0.00 85 1011.8
20260508044430 73 84 3.0 7.0 0.00 0.00 0.00 85 1011.8
20260508044327 73 125 2.0 7.0 0.00 0.00 0.00 85 1011.8
20260508044224 73 69 2.0 7.0 0.00 0.00 0.00 85 1011.8
20260508044122 73 113 2.0 7.0 0.00 0.00 0.00 85 1011.8
20260508044035 73 101 2.0 7.0 0.00 0.00 0.00 85 1011.9
20260508044021 73 81 2.0 7.0 0.00 0.00 0.00 85 1011.9
20260508043921 73 70 2.0 7.0 0.00 0.00 0.00 85 1012.0
20260508043821 73 80 2.0 7.0 0.00 0.00 0.00 85 1012.0
20260508043721 73 78 2.0 7.0 0.00 0.00 0.00 85 1012.0
20260508043618 73 85 2.0 7.0 0.00 0.00 0.00 84 1012.1
20260508043535 73 56 2.0 7.0 0.00 0.00 0.00 84 1012.1
20260508043515 73 78 2.0 7.0 0.00 0.00 0.00 84 1012.1
20260508043415 74 108 2.0 7.0 0.00 0.00 0.00 84 1012.2
20260508043315 74 118 2.0 7.0 0.00 0.00 0.00 84 1012.2
20260508043248 74 89 2.0 7.0 0.00 0.00 0.00 84 1012.3
20260508043212 74 109 2.0 7.0 0.00 0.00 0.00 84 1012.3
20260508043131 74 0 2.0 7.0 0.00 0.00 0.00 84 1012.3
20260508043000 74 77 2.0 7.0 0.00 0.00 0.00 84 1012.3
20260508042900 74 68 2.0 6.0 0.00 0.00 0.00 84 1012.3
20260508042800 74 131 2.0 5.0 0.00 0.00 0.00 84 1012.4
20260508042700 74 83 2.0 5.0 0.00 0.00 0.00 84 1012.4
20260508042600 74 100 2.0 5.0 0.00 0.00 0.00 84 1012.4
20260508042526 74 53 2.0 5.0 0.00 0.00 0.00 83 1012.4
20260508042500 74 59 2.0 5.0 0.00 0.00 0.00 83 1012.4
20260508042400 74 96 2.0 5.0 0.00 0.00 0.00 83 1012.4
20260508042301 74 77 2.0 5.0 0.00 0.00 0.00 84 1012.4
20260508042201 74 97 2.0 5.0 0.00 0.00 0.00 84 1012.4
20260508042102 74 46 1.0 4.0 0.00 0.00 0.00 84 1012.4
20260508042026 74 139 1.0 4.0 0.00 0.00 0.00 84 1012.4
20260508042000 74 89 1.0 4.0 0.00 0.00 0.00 84 1012.4
20260508041901 74 98 1.0 4.0 0.00 0.00 0.00 83 1012.5
20260508041800 74 68 1.0 4.0 0.00 0.00 0.00 83 1012.5
20260508041701 74 54 1.0 4.0 0.00 0.00 0.00 83 1012.5
20260508041601 74 73 1.0 2.0 0.00 0.00 0.00 83 1012.8
20260508041526 74 97 1.0 2.0 0.00 0.00 0.00 83 1012.8
20260508041501 74 34 1.0 2.0 0.00 0.00 0.00 83 1012.8
20260508041401 74 25 1.0 3.0 0.00 0.00 0.00 83 1012.8
20260508041301 74 0 1.0 3.0 0.00 0.00 0.00 83 1012.8
20260508041250 74 60 1.0 3.0 0.00 0.00 0.00 83 1012.9
20260508041201 74 0 1.0 3.0 0.00 0.00 0.00 83 1012.8
20260508041129 74 40 1.0 3.0 0.00 0.00 0.00 83 1012.9
20260508040953 74 56 1.0 3.0 0.00 0.00 0.00 83 1012.9
20260508040843 74 85 2.0 4.0 0.00 0.00 0.00 83 1013.0
20260508040743 74 10 2.0 4.0 0.00 0.00 0.00 83 1013.0
20260508040637 74 18 2.0 4.0 0.00 0.00 0.00 83 1013.0
20260508040537 74 38 2.0 4.0 0.00 0.00 0.00 83 1013.0
20260508040459 74 53 2.0 4.0 0.00 0.00 0.00 83 1013.0
20260508040437 74 40 2.0 4.0 0.00 0.00 0.00 83 1012.9
20260508040337 74 52 2.0 4.0 0.00 0.00 0.00 83 1012.9
20260508040237 74 41 2.0 4.0 0.00 0.00 0.00 83 1013.0
20260508040222 74 51 1.0 4.0 0.00 0.00 0.00 83 1013.1
20260508040134 74 29 2.0 4.0 0.00 0.00 0.00 83 1013.0
20260508040105 74 43 1.0 4.0 0.00 0.00 0.00 83 1013.1
20260508035934 74 58 1.0 4.0 0.00 0.00 0.00 83 1013.3
20260508035831 74 56 1.0 4.0 0.00 0.00 0.00 83 1013.6
20260508035731 74 115 1.0 4.0 0.00 0.00 0.00 83 1013.6
20260508035631 74 112 1.0 2.0 0.00 0.00 0.00 83 1013.6
20260508035528 74 107 0.0 2.0 0.00 0.00 0.00 83 1013.6
20260508035501 74 111 0.0 2.0 0.00 0.00 0.00 83 1013.6
20260508035427 74 0 0.0 2.0 0.00 0.00 0.00 83 1013.6
20260508035324 74 116 0.0 2.0 0.00 0.00 0.00 83 1013.6
20260508035224 74 97 0.0 2.0 0.00 0.00 0.00 83 1013.6
20260508035125 74 0 0.0 3.0 0.00 0.00 0.00 83 1013.6
20260508035025 74 79 0.0 3.0 0.00 0.00 0.00 83 1013.6
20260508035000 74 0 0.0 3.0 0.00 0.00 0.00 83 1013.6
20260508034925 74 0 0.0 3.0 0.00 0.00 0.00 82 1013.6
20260508034823 74 0 1.0 4.0 0.00 0.00 0.00 82 1013.7
20260508034722 74 289 1.0 4.0 0.00 0.00 0.00 82 1013.7
20260508034622 74 0 1.0 4.0 0.00 0.00 0.00 82 1013.6
20260508034522 74 263 1.0 4.0 0.00 0.00 0.00 82 1013.6
20260508034453 74 0 1.0 4.0 0.00 0.00 0.00 82 1013.6
20260508034419 74 59 1.0 4.0 0.00 0.00 0.00 82 1013.5
20260508034319 74 64 1.0 4.0 0.00 0.00 0.00 82 1013.5
20260508034222 74 73 1.0 4.0 0.00 0.00 0.00 82 1013.5
20260508034117 74 51 1.0 4.0 0.00 0.00 0.00 82 1013.5
20260508034017 74 18 1.0 4.0 0.00 0.00 0.00 82 1013.6
20260508033954 74 89 1.0 4.0 0.00 0.00 0.00 82 1013.6
20260508033916 74 238 1.0 4.0 0.00 0.00 0.00 82 1013.6
20260508033817 74 21 0.0 2.0 0.00 0.00 0.00 82 1013.6
20260508033717 74 43 0.0 2.0 0.00 0.00 0.00 82 1013.6
20260508033614 74 0 0.0 2.0 0.00 0.00 0.00 83 1013.6
20260508033513 74 13 0.0 2.0 0.00 0.00 0.00 82 1013.6
20260508033454 74 39 1.0 2.0 0.00 0.00 0.00 82 1013.6
20260508033413 74 0 0.0 2.0 0.00 0.00 0.00 82 1013.6
20260508033313 74 0 1.0 2.0 0.00 0.00 0.00 82 1013.6
20260508033217 74 309 1.0 2.0 0.00 0.00 0.00 82 1013.6
20260508033213 74 94 1.0 2.0 0.00 0.00 0.00 82 1013.6
20260508033110 74 300 1.0 2.0 0.00 0.00 0.00 82 1013.6
20260508033100 74 0 1.0 2.0 0.00 0.00 0.00 82 1013.6
20260508032907 74 300 1.0 2.0 0.00 0.00 0.00 82 1013.6
20260508032807 74 333 1.0 2.0 0.00 0.00 0.00 82 1013.5
20260508032707 74 268 0.0 2.0 0.00 0.00 0.00 82 1013.5
20260508032603 74 269 0.0 2.0 0.00 0.00 0.00 82 1013.4
20260508032503 74 0 0.0 2.0 0.00 0.00 0.00 82 1013.4
20260508032454 74 294 0.0 2.0 0.00 0.00 0.00 82 1013.4
20260508032403 74 5 1.0 2.0 0.00 0.00 0.00 82 1013.3
20260508032300 74 266 0.0 2.0 0.00 0.00 0.00 82 1013.3
20260508032200 74 0 0.0 2.0 0.00 0.00 0.00 82 1013.3
20260508032100 74 66 0.0 2.0 0.00 0.00 0.00 82 1013.3
20260508032000 74 45 0.0 2.0 0.00 0.00 0.00 82 1013.1
20260508031956 74 41 0.0 2.0 0.00 0.00 0.00 82 1013.1
20260508031857 74 14 0.0 2.0 0.00 0.00 0.00 82 1013.1
20260508031754 74 98 0.0 2.0 0.00 0.00 0.00 82 1013.1
20260508031654 74 156 1.0 4.0 0.00 0.00 0.00 82 1013.1
20260508031552 74 83 1.0 4.0 0.00 0.00 0.00 82 1013.1
20260508031452 74 45 1.0 4.0 0.00 0.00 0.00 81 1013.1
20260508031349 74 30 1.0 4.0 0.00 0.00 0.00 81 1013.0
20260508031250 74 0 1.0 5.0 0.00 0.00 0.00 81 1013.0
20260508031220 74 0 1.0 5.0 0.00 0.00 0.00 81 1013.0
20260508031149 74 0 1.0 5.0 0.00 0.00 0.00 81 1013.0
20260508031059 74 352 1.0 5.0 0.00 0.00 0.00 81 1013.0
20260508030944 74 354 1.0 5.0 0.00 0.00 0.00 81 1013.0
20260508030838 74 93 1.0 5.0 0.00 0.00 0.00 81 1012.9
20260508030738 74 28 1.0 5.0 0.00 0.00 0.00 81 1012.9
20260508030637 74 14 1.0 5.0 0.00 0.00 0.00 81 1012.9
20260508030535 74 40 1.0 5.0 0.00 0.00 0.00 81 1012.8
20260508030454 74 41 1.0 5.0 0.00 0.00 0.00 81 1012.8
20260508030429 74 51 1.0 5.0 0.00 0.00 0.00 81 1012.8
20260508030326 74 335 1.0 4.0 0.00 0.00 0.00 81 1012.8
20260508030226 74 30 1.0 4.0 0.00 0.00 0.00 81 1012.8
20260508030124 74 48 1.0 4.0 0.00 0.00 0.00 81 1012.8
20260508030023 74 290 1.0 4.0 0.00 0.00 0.00 81 1012.8
20260508025954 74 69 1.0 4.0 0.00 0.00 0.00 81 1012.8
20260508025923 74 43 1.0 4.0 0.00 0.00 0.00 81 1012.8
20260508025823 74 3 1.0 4.0 0.00 0.00 0.00 81 1012.8
20260508025723 74 0 1.0 4.0 0.00 0.00 0.00 81 1012.8
20260508025624 74 56 1.0 4.0 0.00 0.00 0.00 81 1012.8
20260508025514 74 102 1.0 3.0 0.00 0.00 0.00 81 1012.9
20260508025452 74 91 1.0 3.0 0.00 0.00 0.00 81 1012.9
20260508025414 74 39 1.0 3.0 0.00 0.00 0.00 81 1012.9
20260508025314 74 45 1.0 3.0 0.00 0.00 0.00 81 1012.9
20260508025214 74 50 2.0 5.0 0.00 0.00 0.00 81 1012.9
20260508025114 74 47 2.0 5.0 0.00 0.00 0.00 81 1012.9
20260508025014 74 49 2.0 5.0 0.00 0.00 0.00 81 1012.9
20260508024952 75 40 2.0 5.0 0.00 0.00 0.00 81 1012.9
20260508024914 75 52 2.0 5.0 0.00 0.00 0.00 81 1012.9
20260508024814 75 26 2.0 5.0 0.00 0.00 0.00 81 1012.9
20260508024714 75 38 2.0 5.0 0.00 0.00 0.00 81 1012.9
20260508024614 75 45 2.0 5.0 0.00 0.00 0.00 81 1012.8
20260508024512 75 43 2.0 5.0 0.00 0.00 0.00 81 1012.8
20260508024452 75 66 2.0 5.0 0.00 0.00 0.00 81 1012.8
20260508024412 75 42 2.0 5.0 0.00 0.00 0.00 81 1012.8
20260508024306 75 49 2.0 5.0 0.00 0.00 0.00 81 1012.8
20260508024156 75 50 2.0 5.0 0.00 0.00 0.00 81 1012.8
20260508024056 75 354 2.0 5.0 0.00 0.00 0.00 81 1012.9
20260508023952 74 327 2.0 5.0 0.00 0.00 0.00 81 1013.0
20260508023854 74 35 2.0 5.0 0.00 0.00 0.00 81 1013.0
20260508023754 74 43 2.0 5.0 0.00 0.00 0.00 81 1013.1
20260508023653 74 49 2.0 5.0 0.00 0.00 0.00 81 1013.1
20260508023553 74 0 1.0 5.0 0.00 0.00 0.00 81 1013.1
20260508023453 74 17 1.0 5.0 0.00 0.00 0.00 82 1013.0
20260508023353 74 107 1.0 5.0 0.00 0.00 0.00 82 1013.0
20260508023253 74 45 1.0 5.0 0.00 0.00 0.00 82 1012.9
20260508023218 75 27 1.0 2.0 0.00 0.00 0.00 82 1012.9
20260508023151 75 63 1.0 3.0 0.00 0.00 0.00 82 1012.9
20260508023101 75 358 1.0 3.0 0.00 0.00 0.00 82 1012.9
20260508023055 75 27 1.0 2.0 0.00 0.00 0.00 82 1012.9
20260508022855 75 39 1.0 2.0 0.00 0.00 0.00 82 1012.9
20260508022739 75 57 1.0 2.0 0.00 0.00 0.00 82 1012.9
20260508022633 75 136 1.0 2.0 0.00 0.00 0.00 82 1012.9
20260508022533 75 62 1.0 2.0 0.00 0.00 0.00 82 1012.9
20260508022446 75 7 1.0 2.0 0.00 0.00 0.00 82 1012.9
20260508022426 75 0 1.0 2.0 0.00 0.00 0.00 82 1012.9
20260508022327 75 57 1.0 2.0 0.00 0.00 0.00 82 1012.9
20260508022227 75 71 1.0 2.0 0.00 0.00 0.00 81 1012.9
20260508022123 75 63 1.0 2.0 0.00 0.00 0.00 81 1012.9
20260508022024 75 52 1.0 2.0 0.00 0.00 0.00 81 1013.0
20260508021946 75 29 1.0 2.0 0.00 0.00 0.00 81 1013.0
20260508021924 75 11 1.0 2.0 0.00 0.00 0.00 81 1013.0
20260508021820 75 21 1.0 2.0 0.00 0.00 0.00 81 1013.0
20260508021721 75 351 1.0 4.0 0.00 0.00 0.00 81 1013.0
20260508021621 75 36 1.0 4.0 0.00 0.00 0.00 81 1013.0
20260508021520 75 37 1.0 4.0 0.00 0.00 0.00 81 1013.0
20260508021440 75 18 1.0 4.0 0.00 0.00 0.00 81 1013.0
20260508021419 75 332 1.0 4.0 0.00 0.00 0.00 81 1013.0
20260508021317 75 0 1.0 4.0 0.00 0.00 0.00 81 1013.0
20260508021212 75 340 1.0 4.0 0.00 0.00 0.00 81 1013.1
20260508021100 75 37 1.0 4.0 0.00 0.00 0.00 81 1013.1
20260508021000 75 12 1.0 4.0 0.00 0.00 0.00 81 1013.1
20260508020937 75 22 1.0 4.0 0.00 0.00 0.00 81 1013.1
20260508020900 75 340 1.0 4.0 0.00 0.00 0.00 81 1013.1
20260508020757 75 46 1.0 4.0 0.00 0.00 0.00 81 1013.1
20260508020657 75 25 1.0 4.0 0.00 0.00 0.00 81 1013.2
20260508020557 75 9 1.0 4.0 0.00 0.00 0.00 81 1013.1
20260508020457 75 49 1.0 3.0 0.00 0.00 0.00 81 1013.1
20260508020438 75 321 1.0 3.0 0.00 0.00 0.00 81 1013.1
20260508020357 75 63 1.0 3.0 0.00 0.00 0.00 81 1013.1
20260508020257 75 142 1.0 4.0 0.00 0.00 0.00 81 1013.0
20260508020157 75 12 2.0 4.0 0.00 0.00 0.00 81 1013.0
20260508020057 75 258 2.0 4.0 0.00 0.00 0.00 81 1013.0
20260508015955 75 355 2.0 4.0 0.00 0.00 0.00 81 1012.9
20260508015932 75 22 2.0 4.0 0.00 0.00 0.00 81 1012.9
20260508015856 75 298 2.0 4.0 0.00 0.00 0.00 81 1012.9
20260508015756 75 59 2.0 4.0 0.00 0.00 0.00 81 1012.9
20260508015654 75 290 2.0 4.0 0.00 0.00 0.00 81 1012.9
20260508015554 75 49 2.0 4.0 0.00 0.00 0.00 81 1012.8
20260508015447 75 9 1.0 4.0 0.00 0.00 0.00 81 1012.8
20260508015432 75 45 1.0 4.0 0.00 0.00 0.00 81 1012.8
20260508015349 75 43 1.0 4.0 0.00 0.00 0.00 81 1012.8
20260508015248 75 36 1.0 4.0 0.00 0.00 0.00 81 1012.8
20260508015156 75 344 1.0 4.0 0.00 0.00 0.00 81 1012.8
20260508015149 75 323 1.0 4.0 0.00 0.00 0.00 81 1012.8
20260508015048 75 7 1.0 4.0 0.00 0.00 0.00 81 1012.8
20260508015037 75 295 1.0 4.0 0.00 0.00 0.00 81 1012.8
20260508014845 75 359 1.0 4.0 0.00 0.00 0.00 81 1012.8
20260508014745 75 69 0.0 3.0 0.00 0.00 0.00 81 1012.8
20260508014639 75 0 0.0 3.0 0.00 0.00 0.00 81 1012.9
20260508014536 75 60 1.0 3.0 0.00 0.00 0.00 81 1012.9
20260508014433 75 41 1.0 3.0 0.00 0.00 0.00 80 1013.0
20260508014324 75 311 1.0 3.0 0.00 0.00 0.00 80 1013.0
20260508014224 75 318 1.0 3.0 0.00 0.00 0.00 80 1013.0
20260508014124 75 0 1.0 3.0 0.00 0.00 0.00 80 1013.0
20260508014024 75 267 1.0 4.0 0.00 0.00 0.00 80 1013.0
20260508013924 75 0 1.0 4.0 0.00 0.00 0.00 80 1012.9
20260508013820 75 350 2.0 5.0 0.00 0.00 0.00 80 1012.9
20260508013722 75 37 2.0 6.0 0.00 0.00 0.00 80 1012.9
20260508013618 75 312 2.0 6.0 0.00 0.00 0.00 80 1012.8
20260508013515 75 289 2.0 6.0 0.00 0.00 0.00 80 1012.8
20260508013420 75 37 2.0 6.0 0.00 0.00 0.00 80 1012.8
20260508013415 75 21 2.0 6.0 0.00 0.00 0.00 80 1012.8
20260508013315 75 36 2.0 6.0 0.00 0.00 0.00 80 1012.7
20260508013215 75 0 2.0 6.0 0.00 0.00 0.00 80 1012.7
20260508013115 75 330 2.0 6.0 0.00 0.00 0.00 80 1012.7
20260508013012 75 275 2.0 6.0 0.00 0.00 0.00 80 1012.7
20260508012917 75 352 2.0 6.0 0.00 0.00 0.00 80 1012.7
20260508012913 75 347 2.0 6.0 0.00 0.00 0.00 80 1012.7
20260508012812 75 9 2.0 6.0 0.00 0.00 0.00 80 1012.7
20260508012712 75 352 2.0 5.0 0.00 0.00 0.00 80 1012.7
20260508012635 75 30 2.0 5.0 0.00 0.00 0.00 80 1012.7
20260508012613 75 358 2.0 5.0 0.00 0.00 0.00 80 1012.8
20260508012522 75 18 2.0 5.0 0.00 0.00 0.00 80 1012.7
20260508012413 75 7 2.0 5.0 0.00 0.00 0.00 80 1012.7
20260508012309 75 42 2.0 5.0 0.00 0.00 0.00 80 1012.7
20260508012209 75 343 2.0 4.0 0.00 0.00 0.00 80 1012.7
20260508012109 75 23 2.0 4.0 0.00 0.00 0.00 80 1012.7
20260508012010 76 8 1.0 4.0 0.00 0.00 0.00 80 1012.7
20260508011918 76 314 1.0 4.0 0.00 0.00 0.00 80 1012.8
20260508011904 76 13 1.0 4.0 0.00 0.00 0.00 80 1012.8
20260508011804 76 18 2.0 4.0 0.00 0.00 0.00 80 1012.8
20260508011701 76 24 1.0 4.0 0.00 0.00 0.00 80 1012.9
20260508011558 76 355 1.0 4.0 0.00 0.00 0.00 80 1012.8
20260508011452 76 28 2.0 5.0 0.00 0.00 0.00 80 1012.8
20260508011417 76 322 2.0 5.0 0.00 0.00 0.00 80 1012.8
20260508011352 76 50 2.0 5.0 0.00 0.00 0.00 80 1012.8
20260508011249 76 8 2.0 6.0 0.00 0.00 0.00 80 1012.7
20260508011142 76 326 2.0 6.0 0.00 0.00 0.00 80 1012.7
20260508011042 76 309 2.0 6.0 0.00 0.00 0.00 80 1012.7
20260508010942 76 349 2.0 6.0 0.00 0.00 0.00 80 1012.7
20260508010914 76 11 2.0 6.0 0.00 0.00 0.00 80 1012.7
20260508010839 76 31 2.0 6.0 0.00 0.00 0.00 80 1012.7
20260508010739 76 20 2.0 6.0 0.00 0.00 0.00 80 1012.7
20260508010639 76 24 2.0 6.0 0.00 0.00 0.00 80 1012.7
20260508010539 76 32 2.0 6.0 0.00 0.00 0.00 80 1012.7
20260508010437 76 51 2.0 6.0 0.00 0.00 0.00 80 1012.8
20260508010412 76 38 1.0 6.0 0.00 0.00 0.00 80 1012.8
20260508010334 76 264 1.0 6.0 0.00 0.00 0.00 80 1012.8
20260508010234 76 12 1.0 6.0 0.00 0.00 0.00 80 1012.7
20260508010134 76 23 1.0 4.0 0.00 0.00 0.00 80 1012.7
20260508010034 76 125 1.0 4.0 0.00 0.00 0.00 80 1012.7
20260508005931 76 67 2.0 4.0 0.00 0.00 0.00 80 1012.7
20260508005911 76 34 2.0 4.0 0.00 0.00 0.00 80 1012.7
20260508005828 76 16 2.0 4.0 0.00 0.00 0.00 81 1012.7
20260508005727 76 56 2.0 6.0 0.00 0.00 0.00 81 1012.7
20260508005629 76 61 2.0 6.0 0.00 0.00 0.00 80 1012.6
20260508005528 76 0 2.0 6.0 0.00 0.00 0.00 80 1012.6
20260508005428 76 5 2.0 7.0 0.00 0.00 0.00 80 1012.6
20260508005411 76 0 2.0 7.0 0.00 0.00 0.00 80 1012.6
20260508005328 76 343 2.0 7.0 0.00 0.00 0.00 80 1012.6
20260508005228 76 29 3.0 7.0 0.00 0.00 0.00 80 1012.6
20260508005125 76 31 3.0 7.0 0.00 0.00 0.00 80 1012.5
20260508005025 76 7 3.0 7.0 0.00 0.00 0.00 80 1012.5
20260508004922 76 58 3.0 7.0 0.00 0.00 0.00 80 1012.5
20260508004909 76 16 3.0 7.0 0.00 0.00 0.00 80 1012.5
20260508004822 76 354 3.0 7.0 0.00 0.00 0.00 80 1012.5
20260508004722 76 3 3.0 7.0 0.00 0.00 0.00 80 1012.5
20260508004622 76 31 3.0 7.0 0.00 0.00 0.00 80 1012.5
20260508004522 76 354 3.0 7.0 0.00 0.00 0.00 80 1012.5
20260508004422 76 38 2.0 7.0 0.00 0.00 0.00 80 1012.5
20260508004409 76 43 2.0 6.0 0.00 0.00 0.00 80 1012.5
20260508004322 76 46 2.0 6.0 0.00 0.00 0.00 80 1012.4
20260508004222 76 0 2.0 6.0 0.00 0.00 0.00 80 1012.4
20260508004132 76 45 2.0 6.0 0.00 0.00 0.00 80 1012.4
20260508004119 76 24 2.0 6.0 0.00 0.00 0.00 80 1012.4
20260508004020 76 32 2.0 6.0 0.00 0.00 0.00 80 1012.4
20260508004015 76 347 2.0 6.0 0.00 0.00 0.00 80 1012.4
20260508003817 76 306 2.0 6.0 0.00 0.00 0.00 80 1012.4
20260508003717 76 61 2.0 6.0 0.00 0.00 0.00 80 1012.4
20260508003607 76 352 2.0 6.0 0.00 0.00 0.00 80 1012.4
20260508003508 76 5 2.0 6.0 0.00 0.00 0.00 80 1012.4
20260508003411 76 30 2.0 6.0 0.00 0.00 0.00 80 1012.4
20260508003407 76 40 2.0 6.0 0.00 0.00 0.00 80 1012.4
20260508003307 76 43 2.0 5.0 0.00 0.00 0.00 80 1012.3
20260508003207 76 298 2.0 5.0 0.00 0.00 0.00 80 1012.3
20260508003104 76 91 2.0 5.0 0.00 0.00 0.00 80 1012.3
20260508003005 76 47 2.0 5.0 0.00 0.00 0.00 80 1012.3
20260508002909 76 0 2.0 5.0 0.00 0.00 0.00 80 1012.3
20260508002904 76 340 2.0 5.0 0.00 0.00 0.00 80 1012.3
20260508002801 76 295 2.0 5.0 0.00 0.00 0.00 80 1012.3
20260508002658 76 245 2.0 5.0 0.00 0.00 0.00 80 1012.3
20260508002559 76 23 2.0 5.0 0.00 0.00 0.00 80 1012.3
20260508002459 76 44 2.0 5.0 0.00 0.00 0.00 80 1012.3
20260508002410 76 332 2.0 6.0 0.00 0.00 0.00 80 1012.3
20260508002359 76 0 2.0 6.0 0.00 0.00 0.00 80 1012.3
20260508002258 76 2 2.0 6.0 0.00 0.00 0.00 80 1012.2
20260508002158 76 31 2.0 6.0 0.00 0.00 0.00 79 1012.2
20260508002059 76 35 2.0 6.0 0.00 0.00 0.00 79 1012.3
20260508001958 76 6 2.0 6.0 0.00 0.00 0.00 79 1012.3
20260508001910 76 322 2.0 6.0 0.00 0.00 0.00 79 1012.4
20260508001859 76 15 2.0 6.0 0.00 0.00 0.00 79 1012.4
20260508001759 76 7 2.0 6.0 0.00 0.00 0.00 79 1012.5
20260508001656 76 331 2.0 6.0 0.00 0.00 0.00 79 1012.5
20260508001628 76 344 3.0 6.0 0.00 0.00 0.00 79 1012.4
20260508001552 76 344 3.0 6.0 0.00 0.00 0.00 79 1012.5
20260508001515 76 31 3.0 6.0 0.00 0.00 0.00 79 1012.4
20260508001352 76 31 3.0 6.0 0.00 0.00 0.00 79 1012.4
20260508001252 76 15 3.0 6.0 0.00 0.00 0.00 79 1012.5
20260508001153 76 64 3.0 6.0 0.00 0.00 0.00 79 1012.5
20260508001053 76 328 3.0 6.0 0.00 0.00 0.00 79 1012.4
20260508000953 76 33 3.0 6.0 0.00 0.00 0.00 79 1012.4
20260508000910 76 359 3.0 6.0 0.00 0.00 0.00 79 1012.4
20260508000849 76 62 3.0 6.0 0.00 0.00 0.00 79 1012.4
20260508000749 76 43 3.0 6.0 0.00 0.00 0.00 79 1012.4
20260508000651 76 29 3.0 5.0 0.00 0.00 0.00 79 1012.4
20260508000626 76 41 2.0 6.0 0.00 0.00 0.00 79 1012.5
20260508000547 76 24 2.0 5.0 0.00 0.00 0.00 79 1012.4
20260508000513 76 45 2.0 6.0 0.00 0.00 0.00 79 1012.5
20260508000342 76 53 3.0 6.0 0.00 0.00 0.00 79 1012.5
20260508000242 76 41 3.0 7.0 0.00 0.00 0.00 79 1012.5
20260508000140 76 24 3.0 7.0 0.00 0.00 0.00 79 1012.5
20260508000032 76 36 3.0 7.0 0.00 0.00 0.00 79 1012.5
20260507235932 76 35 3.0 7.0 0.00 0.00 0.00 79 1012.5
20260507235904 76 46 3.0 7.0 0.00 0.00 0.00 79 1012.5
20260507235829 76 38 3.0 7.0 0.00 0.00 0.00 79 1012.5
20260507235729 76 10 3.0 7.0 0.00 0.00 0.00 79 1012.4
20260507235620 76 54 3.0 7.0 0.00 0.00 0.00 79 1012.4
20260507235520 76 9 3.0 7.0 0.00 0.00 0.00 79 1012.4
20260507235417 76 38 3.0 7.0 0.00 0.00 0.00 79 1012.4
20260507235357 76 16 3.0 7.0 0.00 0.00 0.00 79 1012.4
20260507235314 76 33 3.0 7.0 0.00 0.00 0.00 79 1012.4
20260507235211 76 29 3.0 7.0 0.00 0.00 0.00 79 1012.4
20260507235110 76 7 3.0 7.0 0.00 0.00 0.00 79 1012.4
20260507235008 76 6 3.0 7.0 0.00 0.00 0.00 79 1012.4
20260507234908 77 58 2.0 7.0 0.00 0.00 0.00 79 1012.4
20260507234857 77 13 2.0 7.0 0.00 0.00 0.00 79 1012.4
20260507234808 77 41 2.0 7.0 0.00 0.00 0.00 79 1012.4
20260507234707 77 44 2.0 7.0 0.00 0.00 0.00 79 1012.4
20260507234605 77 46 3.0 7.0 0.00 0.00 0.00 79 1012.4
20260507234459 77 8 3.0 7.0 0.00 0.00 0.00 79 1012.4
20260507234359 77 41 3.0 7.0 0.00 0.00 0.00 79 1012.3
20260507234259 77 58 3.0 7.0 0.00 0.00 0.00 79 1012.3
20260507234159 77 26 3.0 7.0 0.00 0.00 0.00 79 1012.3
20260507234116 77 6 3.0 7.0 0.00 0.00 0.00 79 1012.2
20260507234059 77 32 3.0 7.0 0.00 0.00 0.00 79 1012.3
20260507234009 77 59 3.0 7.0 0.00 0.00 0.00 79 1012.3
20260507234003 77 6 3.0 7.0 0.00 0.00 0.00 79 1012.2
20260507233758 77 39 3.0 7.0 0.00 0.00 0.00 78 1012.3
20260507233657 77 36 3.0 7.0 0.00 0.00 0.00 78 1012.3
20260507233557 77 20 2.0 7.0 0.00 0.00 0.00 78 1012.3
20260507233457 77 22 2.0 7.0 0.00 0.00 0.00 79 1012.3
20260507233401 77 52 2.0 7.0 0.00 0.00 0.00 79 1012.3
20260507233357 77 75 2.0 7.0 0.00 0.00 0.00 79 1012.3
20260507233257 77 53 2.0 7.0 0.00 0.00 0.00 79 1012.4
20260507233153 77 25 2.0 7.0 0.00 0.00 0.00 79 1012.4
20260507233053 77 32 2.0 5.0 0.00 0.00 0.00 79 1012.4
20260507232953 77 5 2.0 4.0 0.00 0.00 0.00 79 1012.4
20260507232853 77 39 2.0 4.0 0.00 0.00 0.00 79 1012.4
20260507232753 77 41 2.0 4.0 0.00 0.00 0.00 79 1012.4
20260507232653 77 80 2.0 7.0 0.00 0.00 0.00 79 1012.4
20260507232553 77 70 2.0 7.0 0.00 0.00 0.00 79 1012.4
20260507232453 77 25 2.0 7.0 0.00 0.00 0.00 79 1012.4
20260507232357 77 44 3.0 7.0 0.00 0.00 0.00 78 1012.4
20260507232353 77 60 3.0 7.0 0.00 0.00 0.00 78 1012.4
20260507232247 77 69 3.0 7.0 0.00 0.00 0.00 78 1012.4
20260507232148 77 347 3.0 7.0 0.00 0.00 0.00 78 1012.3
20260507232041 77 56 3.0 7.0 0.00 0.00 0.00 78 1012.3
20260507231941 77 77 3.0 7.0 0.00 0.00 0.00 79 1012.3
20260507231855 77 48 3.0 7.0 0.00 0.00 0.00 78 1012.3
20260507231841 77 352 3.0 7.0 0.00 0.00 0.00 78 1012.3
20260507231741 77 39 3.0 7.0 0.00 0.00 0.00 78 1012.3
20260507231641 77 3 3.0 7.0 0.00 0.00 0.00 78 1012.3
20260507231541 77 1 3.0 7.0 0.00 0.00 0.00 78 1012.3
20260507231441 77 38 3.0 8.0 0.00 0.00 0.00 78 1012.3
20260507231352 77 34 3.0 8.0 0.00 0.00 0.00 78 1012.3
20260507231341 77 31 3.0 8.0 0.00 0.00 0.00 78 1012.3
20260507231241 77 353 3.0 8.0 0.00 0.00 0.00 79 1012.3
20260507231141 77 10 3.0 8.0 0.00 0.00 0.00 79 1012.3
20260507231041 77 42 3.0 8.0 0.00 0.00 0.00 79 1012.3
20260507230938 77 19 3.0 8.0 0.00 0.00 0.00 79 1012.4
20260507230852 77 47 3.0 8.0 0.00 0.00 0.00 78 1012.4
20260507230738 77 20 3.0 8.0 0.00 0.00 0.00 78 1012.3
20260507230638 77 33 3.0 8.0 0.00 0.00 0.00 78 1012.3
20260507230539 77 33 3.0 8.0 0.00 0.00 0.00 78 1012.3
20260507230439 76 46 3.0 8.0 0.00 0.00 0.00 79 1012.3
20260507230353 76 5 2.0 8.0 0.00 0.00 0.00 79 1012.3
20260507230339 76 14 2.0 8.0 0.00 0.00 0.00 79 1012.3
20260507230239 76 12 2.0 5.0 0.00 0.00 0.00 79 1012.3
20260507230139 76 51 2.0 5.0 0.00 0.00 0.00 79 1012.3
20260507230039 76 356 2.0 5.0 0.00 0.00 0.00 79 1012.3
20260507225936 76 49 2.0 5.0 0.00 0.00 0.00 79 1012.3
20260507225849 77 26 2.0 4.0 0.00 0.00 0.00 79 1012.4
20260507225833 77 58 2.0 4.0 0.00 0.00 0.00 79 1012.4
20260507225730 77 27 2.0 4.0 0.00 0.00 0.00 79 1012.4
20260507225627 77 53 2.0 4.0 0.00 0.00 0.00 79 1012.4
20260507225524 77 20 2.0 4.0 0.00 0.00 0.00 79 1012.5
20260507225421 77 28 2.0 4.0 0.00 0.00 0.00 79 1012.5
20260507225349 77 342 2.0 4.0 0.00 0.00 0.00 79 1012.5
20260507225318 77 34 2.0 4.0 0.00 0.00 0.00 79 1012.5
20260507225209 77 43 2.0 4.0 0.00 0.00 0.00 78 1012.5
20260507225109 77 19 2.0 5.0 0.00 0.00 0.00 78 1012.5
20260507225009 77 4 2.0 5.0 0.00 0.00 0.00 78 1012.5
20260507224906 77 358 2.0 5.0 0.00 0.00 0.00 78 1012.5
20260507224850 77 20 2.0 5.0 0.00 0.00 0.00 78 1012.5
20260507224803 77 56 2.0 5.0 0.00 0.00 0.00 78 1012.5
20260507224700 77 77 2.0 6.0 0.00 0.00 0.00 78 1012.4
20260507224600 77 262 2.0 6.0 0.00 0.00 0.00 78 1012.4
20260507224500 77 33 2.0 6.0 0.00 0.00 0.00 78 1012.4
20260507224359 78 9 3.0 6.0 0.00 0.00 0.00 78 1012.4
20260507224347 78 46 3.0 6.0 0.00 0.00 0.00 78 1012.4
20260507224257 78 70 3.0 6.0 0.00 0.00 0.00 78 1012.4
20260507224154 78 46 3.0 6.0 0.00 0.00 0.00 78 1012.4
20260507224054 78 8 2.0 6.0 0.00 0.00 0.00 77 1012.4
20260507223954 78 5 2.0 6.0 0.00 0.00 0.00 77 1012.4
20260507223854 78 37 2.0 6.0 0.00 0.00 0.00 77 1012.4
20260507223847 78 54 2.0 6.0 0.00 0.00 0.00 77 1012.4
20260507223754 78 16 2.0 6.0 0.00 0.00 0.00 77 1012.3
20260507223654 78 6 2.0 6.0 0.00 0.00 0.00 77 1012.3
20260507223554 78 20 2.0 6.0 0.00 0.00 0.00 77 1012.3
20260507223451 78 37 2.0 6.0 0.00 0.00 0.00 77 1012.3
20260507223353 78 26 2.0 4.0 0.00 0.00 0.00 77 1012.2
20260507223347 78 30 2.0 4.0 0.00 0.00 0.00 77 1012.2
20260507223251 78 20 1.0 4.0 0.00 0.00 0.00 77 1012.2
20260507223152 78 24 2.0 4.0 0.00 0.00 0.00 76 1012.2
20260507223050 78 40 2.0 4.0 0.00 0.00 0.00 76 1012.2
20260507222950 78 35 2.0 4.0 0.00 0.00 0.00 76 1012.2
20260507222852 78 356 2.0 4.0 0.00 0.00 0.00 76 1012.2
20260507222846 78 222 2.0 4.0 0.00 0.00 0.00 76 1012.2
20260507222751 78 22 2.0 4.0 0.00 0.00 0.00 77 1012.3
20260507222652 78 270 2.0 4.0 0.00 0.00 0.00 77 1012.3
20260507222549 78 355 2.0 4.0 0.00 0.00 0.00 77 1012.2
20260507222445 78 277 2.0 4.0 0.00 0.00 0.00 76 1012.2
20260507222341 78 21 2.0 4.0 0.00 0.00 0.00 76 1012.2
20260507222245 78 348 2.0 4.0 0.00 0.00 0.00 76 1012.2
20260507222145 78 329 2.0 4.0 0.00 0.00 0.00 77 1012.2
20260507222045 78 5 2.0 6.0 0.00 0.00 0.00 77 1012.2
20260507221945 78 22 2.0 6.0 0.00 0.00 0.00 76 1012.2
20260507221846 78 351 2.0 6.0 0.00 0.00 0.00 77 1012.2
20260507221841 78 347 2.0 6.0 0.00 0.00 0.00 77 1012.2
20260507221745 78 16 2.0 6.0 0.00 0.00 0.00 77 1012.2
20260507221645 78 2 3.0 7.0 0.00 0.00 0.00 77 1012.2
20260507221545 78 3 3.0 7.0 0.00 0.00 0.00 77 1012.2
20260507221445 78 16 3.0 7.0 0.00 0.00 0.00 77 1012.2
20260507221346 78 42 3.0 7.0 0.00 0.00 0.00 77 1012.2
20260507221339 78 58 3.0 7.0 0.00 0.00 0.00 77 1012.2
20260507221245 78 28 4.0 7.0 0.00 0.00 0.00 76 1012.3
20260507221143 78 29 4.0 7.0 0.00 0.00 0.00 76 1012.3
20260507221040 78 356 3.0 7.0 0.00 0.00 0.00 76 1012.3
20260507220939 78 15 3.0 7.0 0.00 0.00 0.00 76 1012.3
20260507220840 78 357 3.0 7.0 0.00 0.00 0.00 75 1012.3
20260507220836 78 34 3.0 7.0 0.00 0.00 0.00 75 1012.3
20260507220736 78 321 3.0 7.0 0.00 0.00 0.00 75 1012.3
20260507220636 78 2 3.0 7.0 0.00 0.00 0.00 76 1012.4
20260507220603 78 7 2.0 6.0 0.00 0.00 0.00 76 1012.5
20260507220536 78 38 3.0 7.0 0.00 0.00 0.00 75 1012.4
20260507220446 78 22 2.0 6.0 0.00 0.00 0.00 76 1012.5
20260507220336 78 31 2.0 6.0 0.00 0.00 0.00 76 1012.5
20260507220237 78 20 2.0 6.0 0.00 0.00 0.00 76 1012.5
20260507220137 78 333 2.0 4.0 0.00 0.00 0.00 76 1012.4
20260507220037 78 315 2.0 7.0 0.00 0.00 0.00 76 1012.4
20260507215936 78 304 2.0 7.0 0.00 0.00 0.00 76 1012.4
20260507215836 78 342 2.0 7.0 0.00 0.00 0.00 76 1012.4
20260507215737 78 41 2.0 7.0 0.00 0.00 0.00 76 1012.4
20260507215636 78 3 2.0 7.0 0.00 0.00 0.00 76 1012.4
20260507215536 78 0 2.0 7.0 0.00 0.00 0.00 75 1012.4
20260507215431 78 55 2.0 7.0 0.00 0.00 0.00 75 1012.4
20260507215338 78 29 2.0 7.0 0.00 0.00 0.00 75 1012.4
20260507215331 78 342 2.0 7.0 0.00 0.00 0.00 75 1012.4
20260507215228 78 64 2.0 7.0 0.00 0.00 0.00 75 1012.4
20260507215125 78 74 2.0 7.0 0.00 0.00 0.00 74 1012.4
20260507215025 78 359 2.0 7.0 0.00 0.00 0.00 74 1012.4
20260507214925 78 37 2.0 7.0 0.00 0.00 0.00 76 1012.4
20260507214839 78 67 2.0 7.0 0.00 0.00 0.00 76 1012.4
20260507214825 78 20 2.0 7.0 0.00 0.00 0.00 76 1012.4
20260507214718 78 330 2.0 7.0 0.00 0.00 0.00 75 1012.4
20260507214616 78 39 3.0 7.0 0.00 0.00 0.00 75 1012.3
20260507214513 78 57 3.0 9.0 0.00 0.00 0.00 75 1012.3
20260507214413 78 353 3.0 9.0 0.00 0.00 0.00 76 1012.4
20260507214339 78 22 4.0 9.0 0.00 0.00 0.00 76 1012.4
20260507214313 78 21 4.0 9.0 0.00 0.00 0.00 76 1012.4
20260507214206 78 342 3.0 9.0 0.00 0.00 0.00 76 1012.4
20260507214104 78 18 3.0 9.0 0.00 0.00 0.00 76 1012.4
20260507213954 78 29 3.0 9.0 0.00 0.00 0.00 76 1012.4
20260507213854 78 341 3.0 9.0 0.00 0.00 0.00 76 1012.4
20260507213836 78 74 3.0 9.0 0.00 0.00 0.00 76 1012.4
20260507213746 77 13 4.0 9.0 0.00 0.00 0.00 77 1012.4
20260507213631 77 2 4.0 9.0 0.00 0.00 0.00 77 1012.4
20260507213525 77 25 4.0 9.0 0.00 0.00 0.00 77 1012.4
20260507213422 77 23 4.0 9.0 0.00 0.00 0.00 77 1012.4
20260507213335 77 46 4.0 9.0 0.00 0.00 0.00 77 1012.4
20260507213319 77 29 4.0 9.0 0.00 0.00 0.00 77 1012.4
20260507213219 77 28 4.0 9.0 0.00 0.00 0.00 77 1012.4
20260507213101 77 40 4.0 9.0 0.00 0.00 0.00 76 1012.5
20260507212955 77 358 4.0 9.0 0.00 0.00 0.00 76 1012.5
20260507212855 77 81 4.0 9.0 0.00 0.00 0.00 76 1012.5
20260507212824 77 12 4.0 9.0 0.00 0.00 0.00 76 1012.5
20260507212755 77 28 4.0 8.0 0.00 0.00 0.00 76 1012.6
20260507212651 77 30 3.0 8.0 0.00 0.00 0.00 76 1012.6
20260507212549 78 36 3.0 8.0 0.00 0.00 0.00 76 1012.6
20260507212449 78 45 3.0 8.0 0.00 0.00 0.00 76 1012.5
20260507212349 78 57 2.0 6.0 0.00 0.00 0.00 76 1012.6
20260507212324 78 65 2.0 6.0 0.00 0.00 0.00 76 1012.6
20260507212249 78 29 2.0 7.0 0.00 0.00 0.00 76 1012.6
20260507212134 78 47 2.0 7.0 0.00 0.00 0.00 75 1012.6
20260507212034 78 355 2.0 8.0 0.00 0.00 0.00 75 1012.6
20260507211931 78 14 2.0 8.0 0.00 0.00 0.00 75 1012.6
20260507211829 78 357 2.0 8.0 0.00 0.00 0.00 75 1012.7
20260507211823 78 349 2.0 8.0 0.00 0.00 0.00 75 1012.7
20260507211728 78 46 2.0 8.0 0.00 0.00 0.00 76 1012.8
20260507211628 78 10 2.0 8.0 0.00 0.00 0.00 76 1012.8
20260507211527 78 340 2.0 8.0 0.00 0.00 0.00 77 1012.8
20260507211426 78 348 3.0 8.0 0.00 0.00 0.00 76 1012.8
20260507211326 78 329 3.0 8.0 0.00 0.00 0.00 75 1012.8
20260507211223 78 40 3.0 8.0 0.00 0.00 0.00 75 1012.8
20260507211122 78 335 3.0 8.0 0.00 0.00 0.00 75 1012.8
20260507211023 78 351 3.0 8.0 0.00 0.00 0.00 75 1012.8
20260507210923 78 342 3.0 8.0 0.00 0.00 0.00 76 1012.7
20260507210828 78 351 3.0 8.0 0.00 0.00 0.00 75 1012.7
20260507210823 78 331 3.0 8.0 0.00 0.00 0.00 75 1012.7
20260507210720 78 61 3.0 8.0 0.00 0.00 0.00 76 1012.7
20260507210616 78 22 3.0 8.0 0.00 0.00 0.00 76 1012.7
20260507210548 77 350 3.0 8.0 0.00 0.00 0.00 75 1012.7
20260507210516 77 335 3.0 7.0 0.00 0.00 0.00 76 1012.7
20260507210430 77 14 3.0 7.0 0.00 0.00 0.00 76 1012.7
20260507210314 77 24 3.0 8.0 0.00 0.00 0.00 75 1012.7
20260507210214 77 68 3.0 8.0 0.00 0.00 0.00 75 1012.7
20260507210114 77 15 3.0 8.0 0.00 0.00 0.00 76 1012.8
20260507210013 77 12 3.0 8.0 0.00 0.00 0.00 76 1012.8
20260507205914 77 357 3.0 8.0 0.00 0.00 0.00 76 1012.8
20260507205824 77 39 3.0 8.0 0.00 0.00 0.00 76 1012.8
20260507205813 77 32 3.0 8.0 0.00 0.00 0.00 76 1012.8
20260507205713 77 43 3.0 8.0 0.00 0.00 0.00 76 1012.8
20260507205613 77 324 3.0 8.0 0.00 0.00 0.00 76 1012.8
20260507205513 77 9 3.0 8.0 0.00 0.00 0.00 76 1012.8
20260507205413 77 37 3.0 8.0 0.00 0.00 0.00 76 1012.8
20260507205324 77 3 2.0 7.0 0.00 0.00 0.00 76 1012.9
20260507205313 77 42 2.0 7.0 0.00 0.00 0.00 76 1012.9
20260507205213 77 49 2.0 7.0 0.00 0.00 0.00 75 1012.9
20260507205113 77 61 2.0 7.0 0.00 0.00 0.00 75 1012.9
20260507205013 78 33 2.0 6.0 0.00 0.00 0.00 76 1012.9
20260507204913 78 51 2.0 4.0 0.00 0.00 0.00 75 1012.9
20260507204819 78 30 2.0 4.0 0.00 0.00 0.00 75 1012.9
20260507204813 78 325 2.0 4.0 0.00 0.00 0.00 75 1012.9
20260507204713 78 103 2.0 6.0 0.00 0.00 0.00 75 1013.0
20260507204613 78 76 2.0 6.0 0.00 0.00 0.00 75 1013.0
20260507204513 78 42 2.0 6.0 0.00 0.00 0.00 76 1013.0
20260507204413 77 13 2.0 6.0 0.00 0.00 0.00 75 1013.1
20260507204318 77 6 2.0 6.0 0.00 0.00 0.00 75 1013.1
20260507204313 77 31 2.0 6.0 0.00 0.00 0.00 75 1013.1
20260507204209 77 7 2.0 6.0 0.00 0.00 0.00 76 1013.1
20260507204104 77 53 2.0 6.0 0.00 0.00 0.00 76 1013.1
20260507204001 77 37 2.0 6.0 0.00 0.00 0.00 76 1013.1
20260507203900 77 347 2.0 6.0 0.00 0.00 0.00 76 1013.1
20260507203815 77 58 2.0 6.0 0.00 0.00 0.00 76 1013.1
20260507203800 77 356 2.0 6.0 0.00 0.00 0.00 76 1013.1
20260507203700 77 239 2.0 6.0 0.00 0.00 0.00 76 1013.1
20260507203600 77 301 2.0 6.0 0.00 0.00 0.00 76 1013.1
20260507203541 76 21 2.0 6.0 0.00 0.00 0.00 76 1013.2
20260507203500 76 312 2.0 6.0 0.00 0.00 0.00 75 1013.2
20260507203421 76 320 2.0 6.0 0.00 0.00 0.00 76 1013.2
20260507203300 76 50 2.0 6.0 0.00 0.00 0.00 77 1013.2
20260507203200 76 347 2.0 6.0 0.00 0.00 0.00 77 1013.2
20260507203100 76 296 2.0 6.0 0.00 0.00 0.00 77 1013.2
20260507202959 76 196 2.0 6.0 0.00 0.00 0.00 78 1013.2
20260507202901 76 323 2.0 6.0 0.00 0.00 0.00 76 1013.2
20260507202816 76 301 2.0 6.0 0.00 0.00 0.00 76 1013.2
20260507202753 76 173 3.0 6.0 0.00 0.00 0.00 76 1013.2
20260507202653 76 7 3.0 7.0 0.00 0.00 0.00 77 1013.2
20260507202547 76 345 3.0 7.0 0.00 0.00 0.00 77 1013.2
20260507202447 76 60 3.0 7.0 0.00 0.00 0.00 77 1013.2
20260507202346 76 343 3.0 7.0 0.00 0.00 0.00 78 1013.2
20260507202313 76 328 3.0 7.0 0.00 0.00 0.00 78 1013.2
20260507202241 75 30 3.0 7.0 0.00 0.00 0.00 78 1013.3
20260507202138 75 238 3.0 7.0 0.00 0.00 0.00 76 1013.2
20260507202038 75 359 3.0 7.0 0.00 0.00 0.00 76 1013.2
20260507201938 75 55 3.0 7.0 0.00 0.00 0.00 77 1013.3
20260507201835 75 37 3.0 7.0 0.00 0.00 0.00 76 1013.4
20260507201812 75 15 3.0 7.0 0.00 0.00 0.00 76 1013.4
20260507201759 75 333 3.0 8.0 0.00 0.00 0.00 76 1013.5
20260507201732 75 33 3.0 7.0 0.00 0.00 0.00 76 1013.4
20260507201646 75 16 3.0 7.0 0.00 0.00 0.00 77 1013.3
20260507201532 75 346 2.0 7.0 0.00 0.00 0.00 77 1013.4
20260507201432 75 41 3.0 7.0 0.00 0.00 0.00 77 1013.4
20260507201418 75 334 3.0 7.0 0.00 0.00 0.00 76 1013.5
20260507201229 75 346 3.0 8.0 0.00 0.00 0.00 76 1013.5
20260507201126 75 8 3.0 8.0 0.00 0.00 0.00 76 1013.5
20260507201026 75 317 3.0 8.0 0.00 0.00 0.00 77 1013.5
20260507200926 75 36 3.0 8.0 0.00 0.00 0.00 77 1013.5
20260507200823 75 310 3.0 8.0 0.00 0.00 0.00 77 1013.5
20260507200813 75 344 3.0 8.0 0.00 0.00 0.00 77 1013.5
20260507200723 75 253 3.0 8.0 0.00 0.00 0.00 76 1013.5
20260507200623 75 21 3.0 8.0 0.00 0.00 0.00 77 1013.5
20260507200523 75 340 2.0 8.0 0.00 0.00 0.00 77 1013.5
20260507200420 75 44 2.0 8.0 0.00 0.00 0.00 76 1013.6
20260507200320 75 14 2.0 8.0 0.00 0.00 0.00 76 1013.6
20260507200312 75 8 2.0 8.0 0.00 0.00 0.00 76 1013.6
20260507200220 76 1 2.0 8.0 0.00 0.00 0.00 76 1013.6
20260507200120 75 55 2.0 8.0 0.00 0.00 0.00 78 1013.6
20260507200020 75 326 2.0 7.0 0.00 0.00 0.00 78 1013.6
20260507195920 75 275 2.0 7.0 0.00 0.00 0.00 78 1013.6
20260507195820 75 307 2.0 7.0 0.00 0.00 0.00 78 1013.6
20260507195813 75 249 2.0 7.0 0.00 0.00 0.00 78 1013.6
20260507195721 75 302 2.0 7.0 0.00 0.00 0.00 77 1013.6
20260507195620 75 322 2.0 7.0 0.00 0.00 0.00 77 1013.6
20260507195520 75 10 2.0 7.0 0.00 0.00 0.00 77 1013.6
20260507195420 75 359 2.0 7.0 0.00 0.00 0.00 78 1013.6
20260507195320 75 268 2.0 7.0 0.00 0.00 0.00 78 1013.6
20260507195313 75 296 2.0 7.0 0.00 0.00 0.00 78 1013.6
20260507195218 75 304 2.0 7.0 0.00 0.00 0.00 77 1013.6
20260507195114 75 19 2.0 7.0 0.00 0.00 0.00 76 1013.6
20260507195014 75 37 2.0 7.0 0.00 0.00 0.00 77 1013.6
20260507194914 75 340 2.0 7.0 0.00 0.00 0.00 77 1013.6
20260507194811 75 16 2.0 4.0 0.00 0.00 0.00 77 1013.6
20260507194709 74 348 2.0 4.0 0.00 0.00 0.00 77 1013.6
20260507194608 74 303 2.0 4.0 0.00 0.00 0.00 78 1013.6
20260507194526 74 310 2.0 4.0 0.00 0.00 0.00 78 1013.6
20260507194509 74 266 2.0 4.0 0.00 0.00 0.00 78 1013.6
20260507194415 74 223 2.0 4.0 0.00 0.00 0.00 78 1013.6
20260507194410 74 310 2.0 4.0 0.00 0.00 0.00 78 1013.6
20260507194206 74 281 2.0 4.0 0.00 0.00 0.00 78 1013.6
20260507194105 74 350 2.0 4.0 0.00 0.00 0.00 78 1013.6
20260507194005 74 29 2.0 4.0 0.00 0.00 0.00 78 1013.6
20260507193905 74 291 2.0 4.0 0.00 0.00 0.00 79 1013.7
20260507193805 73 305 2.0 4.0 0.00 0.00 0.00 78 1013.7
20260507193706 73 340 2.0 4.0 0.00 0.00 0.00 78 1013.7
20260507193603 73 319 2.0 4.0 0.00 0.00 0.00 79 1013.8
20260507193502 73 346 2.0 4.0 0.00 0.00 0.00 79 1013.8
20260507193402 73 0 2.0 5.0 0.00 0.00 0.00 79 1013.8
20260507193307 73 27 2.0 5.0 0.00 0.00 0.00 79 1013.8
20260507193302 73 19 2.0 5.0 0.00 0.00 0.00 79 1013.8
20260507193202 73 2 2.0 5.0 0.00 0.00 0.00 80 1013.8
20260507193102 73 26 2.0 5.0 0.00 0.00 0.00 80 1013.8
20260507193001 73 171 2.0 5.0 0.00 0.00 0.00 80 1013.8
20260507192859 73 31 2.0 5.0 0.00 0.00 0.00 79 1013.9
20260507192805 73 50 2.0 5.0 0.00 0.00 0.00 79 1013.9
20260507192757 73 44 2.0 5.0 0.00 0.00 0.00 79 1013.9
20260507192654 73 33 2.0 5.0 0.00 0.00 0.00 79 1013.9
20260507192554 73 21 2.0 5.0 0.00 0.00 0.00 79 1013.9
20260507192444 73 25 2.0 5.0 0.00 0.00 0.00 80 1013.9
20260507192344 73 53 2.0 4.0 0.00 0.00 0.00 81 1014.0
20260507192305 73 318 2.0 4.0 0.00 0.00 0.00 81 1014.0
20260507192244 73 37 2.0 4.0 0.00 0.00 0.00 81 1014.0
20260507192144 72 0 2.0 5.0 0.00 0.00 0.00 80 1014.0
20260507192039 72 302 2.0 5.0 0.00 0.00 0.00 80 1014.0
20260507191936 72 301 2.0 5.0 0.00 0.00 0.00 80 1014.0
20260507191833 72 1 2.0 5.0 0.00 0.00 0.00 80 1014.0
20260507191755 72 323 2.0 5.0 0.00 0.00 0.00 80 1014.0
20260507191733 72 250 2.0 5.0 0.00 0.00 0.00 80 1014.0
20260507191630 72 3 2.0 5.0 0.00 0.00 0.00 80 1014.0
20260507191530 72 38 2.0 5.0 0.00 0.00 0.00 80 1014.0
20260507191427 72 25 2.0 5.0 0.00 0.00 0.00 80 1014.0
20260507191327 72 52 2.0 5.0 0.00 0.00 0.00 80 1014.0
20260507191250 72 95 2.0 5.0 0.00 0.00 0.00 80 1014.0
20260507191224 72 23 1.0 5.0 0.00 0.00 0.00 80 1014.0
20260507191121 72 17 1.0 5.0 0.00 0.00 0.00 79 1014.0
20260507191021 72 54 1.0 5.0 0.00 0.00 0.00 79 1014.1
20260507190917 72 35 1.0 5.0 0.00 0.00 0.00 80 1014.1
20260507190817 72 20 1.0 5.0 0.00 0.00 0.00 80 1014.1
20260507190750 72 357 1.0 3.0 0.00 0.00 0.00 80 1014.1
20260507190714 72 342 1.0 3.0 0.00 0.00 0.00 80 1014.1
20260507190615 72 237 1.0 4.0 0.00 0.00 0.00 80 1014.1
20260507190515 72 277 1.0 4.0 0.00 0.00 0.00 80 1014.1
20260507190415 72 347 1.0 4.0 0.00 0.00 0.00 80 1014.1
20260507190315 72 2 1.0 4.0 0.00 0.00 0.00 80 1014.1
20260507190250 72 263 1.0 4.0 0.00 0.00 0.00 80 1014.1
20260507190212 72 326 1.0 4.0 0.00 0.00 0.00 80 1014.1
20260507190112 72 300 1.0 4.0 0.00 0.00 0.00 80 1014.1
20260507190012 72 60 1.0 4.0 0.00 0.00 0.00 80 1014.1
20260507185909 72 263 1.0 4.0 0.00 0.00 0.00 80 1014.2
20260507185809 72 326 1.0 4.0 0.00 0.00 0.00 80 1014.2
20260507185750 73 271 1.0 4.0 0.00 0.00 0.00 80 1014.2
20260507185709 73 296 1.0 4.0 0.00 0.00 0.00 80 1014.2
20260507185609 72 321 1.0 4.0 0.00 0.00 0.00 80 1014.2
20260507185509 72 294 1.0 4.0 0.00 0.00 0.00 80 1014.2
20260507185410 72 312 1.0 3.0 0.00 0.00 0.00 80 1014.2